Not logged in
PANGAEA.
Data Publisher for Earth & Environmental Science

Long, Charles (2009): Radiosonde measurements from station Southern Great Plains (2007-11) [dataset]. Argonne National Laboratory, PANGAEA, https://doi.org/10.1594/PANGAEA.723839

Always quote citation above when using data! You can download the citation in several formats below.

Published: 2009-07-03DOI registered: 2009-08-03

RIS CitationBibTeX Citation ShareShow MapGoogle Earth

Other version:
Long, Charles (2009): BSRN Station-to-archive file for station Billings (2007-11) [dataset]. ftp://ftp.bsrn.awi.de/bil/bil1107.dat.gz
Coverage:
Latitude: 36.605000 * Longitude: -97.516000
Date/Time Start: 2007-11-01T00:00:00 * Date/Time End: 2007-11-30T23:59:00
Minimum ALTITUDE: 315 m * Maximum ALTITUDE: 31616 m
Event(s):
BIL (Billings) * Latitude: 36.605000 * Longitude: -97.516000 * Date/Time: 1993-06-01T00:00:00 * Elevation: 317.0 m * Location: Oklahoma, United States of America * Method/Device: Monitoring station (MONS) * Comment: BSRN station no: 28; Surface type: grass; Topography type: flat, rural; Station scientist: Laura Riihimaki (laura.riihimaki@noaa.gov)
Comment:
Launches at irregular time intervals. The radiosonde measurements from station Southern Great Plains are used for Billings and E13
Parameter(s):
#NameShort NameUnitPrincipal InvestigatorMethod/DeviceComment
DATE/TIMEDate/TimeGeocode
ALTITUDEAltitudemGeocode
Pressure, at given altitudePPPPhPaLong, CharlesRadiosonde, Vaisala, RS80-15LH
Temperature, airTTT°CLong, CharlesRadiosonde, Vaisala, RS80-15LH
Dew/frost pointTdTdTd°CLong, CharlesRadiosonde, Vaisala, RS80-15LH
Wind directiondddegLong, CharlesRadiosonde, Vaisala, RS80-15LH
Wind speedffm/sLong, CharlesRadiosonde, Vaisala, RS80-15LH
Size:
1974574 data points

Data

Download dataset as tab-delimited text — use the following character encoding:


Date/Time

Altitude [m]

PPPP [hPa]

TTT [°C]

TdTdTd [°C]

dd [deg]

ff [m/s]
2007-11-01T00:005102545-12.3-13.426417
2007-11-01T00:005109545-12.3-13.426417
2007-11-01T00:005115544-12.4-13.426417
2007-11-01T00:005122544-12.4-13.526417
2007-11-01T00:005128543-12.5-13.526317
2007-11-01T00:005135543-12.6-13.526317
2007-11-01T00:005141542-12.6-13.526317
2007-11-01T00:005149542-12.7-13.626317
2007-11-01T00:005155541-12.8-13.626317
2007-11-01T00:005161541-12.8-13.626317
2007-11-01T00:005167541-12.9-13.726317
2007-11-01T00:005174540-12.9-13.726317
2007-11-01T00:005180540-13.0-13.726317
2007-11-01T00:005186539-13.1-13.726317
2007-11-01T00:005192539-13.1-13.726317
2007-11-01T00:005199538-13.2-13.726317
2007-11-01T00:005205538-13.2-13.826317
2007-11-01T00:005212537-13.3-13.926317
2007-11-01T00:005219537-13.3-14.026318
2007-11-01T00:005226536-13.4-14.026318
2007-11-01T00:005233536-13.5-14.026318
2007-11-01T00:005239536-13.5-14.126318
2007-11-01T00:005246535-13.6-14.126318
2007-11-01T00:005253535-13.6-14.126318
2007-11-01T00:005260534-13.7-14.126318
2007-11-01T00:005267534-13.7-14.126318
2007-11-01T00:005273533-13.8-14.126318
2007-11-01T00:005280533-13.9-14.126318
2007-11-01T00:005287532-13.9-14.126318
2007-11-01T00:005294532-13.9-14.226318
2007-11-01T00:015300531-14.0-14.226318
2007-11-01T00:015307531-14.0-14.226418
2007-11-01T00:015314530-14.1-14.326418
2007-11-01T00:015321530-14.1-14.426418
2007-11-01T00:015327529-14.1-14.426418
2007-11-01T00:015334529-14.2-14.426418
2007-11-01T00:015340528-14.2-14.526418
2007-11-01T00:015346528-14.3-14.526418
2007-11-01T00:015352528-14.3-14.526418
2007-11-01T00:015359527-14.4-14.626418
2007-11-01T00:015366527-14.4-14.626518
2007-11-01T00:015373526-14.5-14.626518
2007-11-01T00:015380526-14.5-14.726518
2007-11-01T00:015386525-14.6-14.826518
2007-11-01T00:015393525-14.7-14.926518
2007-11-01T00:015400524-14.7-14.826518
2007-11-01T00:015406524-14.8-14.926518
2007-11-01T00:015413523-14.8-14.926518
2007-11-01T00:015419523-14.9-14.926518
2007-11-01T00:015426523-14.9-14.926518
2007-11-01T00:015432522-15.0-15.026518
2007-11-01T00:015439522-15.0-15.026518
2007-11-01T00:015446521-15.1-15.126518
2007-11-01T00:015454521-15.1-15.126518
2007-11-01T00:015462520-15.2-15.226618
2007-11-01T00:015469519-15.2-15.226618
2007-11-01T00:015476519-15.2-15.226618
2007-11-01T00:015484518-15.3-15.326618
2007-11-01T00:015491518-15.4-15.426518
2007-11-01T00:015498518-15.4-15.526518
2007-11-01T00:025504517-15.5-15.526518
2007-11-01T00:025511517-15.5-15.526518
2007-11-01T00:025518516-15.6-15.626518
2007-11-01T00:025524516-15.6-15.626518
2007-11-01T00:025530515-15.7-17.026518
2007-11-01T00:025536515-15.8-19.226518
2007-11-01T00:025542515-15.9-21.826518
2007-11-01T00:025548514-15.9-24.726518
2007-11-01T00:025554514-15.9-27.926518
2007-11-01T00:025559513-15.8-30.326518
2007-11-01T00:025566513-15.5-30.826518
2007-11-01T00:025572512-15.2-30.626418
2007-11-01T00:025579512-15.1-30.426418
2007-11-01T00:025585512-15.0-30.326418
2007-11-01T00:025591511-15.0-30.126418
2007-11-01T00:025597511-15.0-30.026418
2007-11-01T00:025603510-15.0-29.826418
2007-11-01T00:025609510-15.0-29.626418
2007-11-01T00:025615510-15.1-29.526318
2007-11-01T00:025621509-15.1-29.426318
2007-11-01T00:025627509-15.2-29.326318
2007-11-01T00:025632508-15.2-29.326318
2007-11-01T00:025638508-15.3-29.326318
2007-11-01T00:025644508-15.3-29.426318
2007-11-01T00:025649507-15.4-29.526318
2007-11-01T00:025654507-15.4-29.426218
2007-11-01T00:025660507-15.5-29.226218
2007-11-01T00:025666506-15.5-29.226218
2007-11-01T00:025672506-15.5-29.126218
2007-11-01T00:025678505-15.6-29.126218
2007-11-01T00:035684505-15.6-29.226218
2007-11-01T00:035690505-15.7-29.226218
2007-11-01T00:035696504-15.7-29.226218
2007-11-01T00:035703504-15.7-29.226218
2007-11-01T00:035709503-15.8-29.226219
2007-11-01T00:035716503-15.8-29.226219
2007-11-01T00:035722502-15.8-29.126119
2007-11-01T00:035728502-15.9-29.126119
2007-11-01T00:035734502-15.9-29.126119
2007-11-01T00:035740501-15.9-28.926119
2007-11-01T00:035747501-15.9-28.726119
2007-11-01T00:035753500-15.9-28.426119
2007-11-01T00:035760500-16.0-28.226119
2007-11-01T00:035766499-16.0-28.026119
2007-11-01T00:035773499-16.1-27.926119
2007-11-01T00:035779499-16.1-27.826119
2007-11-01T00:035785498-16.1-27.726119
2007-11-01T00:035790498-16.2-27.626119
2007-11-01T00:035796497-16.2-27.526119
2007-11-01T00:035802497-16.2-27.426119
2007-11-01T00:035807497-16.3-27.426119
2007-11-01T00:035813496-16.3-27.426220
2007-11-01T00:035819496-16.3-27.326220
2007-11-01T00:035824496-16.4-27.426220
2007-11-01T00:035829495-16.4-27.426220
2007-11-01T00:035835495-16.4-27.526220
2007-11-01T00:035842494-16.5-27.526220
2007-11-01T00:035847494-16.5-27.626220
2007-11-01T00:035853494-16.5-27.726220
2007-11-01T00:035859493-16.6-27.726220
2007-11-01T00:045865493-16.7-27.926220
2007-11-01T00:045871493-16.7-28.026220
2007-11-01T00:045877492-16.8-28.226220
2007-11-01T00:045883492-16.8-28.326220
2007-11-01T00:045888491-16.9-28.426320
2007-11-01T00:045894491-16.9-28.526320
2007-11-01T00:045900491-17.0-28.726320
2007-11-01T00:045906490-17.0-28.826320
2007-11-01T00:045912490-17.0-29.026320
2007-11-01T00:045919489-17.1-29.126320
2007-11-01T00:045925489-17.2-29.326320
2007-11-01T00:045931489-17.2-29.626420
2007-11-01T00:045938488-17.2-30.226420
2007-11-01T00:045944488-17.2-30.826420
2007-11-01T00:045949487-17.2-31.526420
2007-11-01T00:045955487-17.3-32.326420
2007-11-01T00:045961487-17.2-32.926421
2007-11-01T00:045967486-17.3-33.626421
2007-11-01T00:045973486-17.3-34.526521
2007-11-01T00:045979486-17.2-35.526521
2007-11-01T00:045985485-17.2-36.926521
2007-11-01T00:045991485-17.2-38.626521
2007-11-01T00:045997484-17.1-40.426521
2007-11-01T00:046003484-17.0-42.026521
2007-11-01T00:046009484-17.0-43.126621
2007-11-01T00:046014483-16.9-43.426621
2007-11-01T00:046020483-16.9-43.426621
2007-11-01T00:046026482-16.9-43.326621
2007-11-01T00:046032482-16.8-43.326621
2007-11-01T00:046038482-16.8-43.726621
2007-11-01T00:056044481-16.8-44.326621
2007-11-01T00:056050481-16.8-44.826621
2007-11-01T00:056056481-16.8-45.526722
2007-11-01T00:056062480-16.7-46.526722
2007-11-01T00:056068480-16.7-47.426722
2007-11-01T00:056074479-16.7-47.926722
2007-11-01T00:056080479-16.6-47.926722
2007-11-01T00:056087479-16.7-48.026722
2007-11-01T00:056092478-16.7-48.526722
2007-11-01T00:056098478-16.7-48.526722
2007-11-01T00:056103478-16.7-48.626722
2007-11-01T00:056109477-16.7-48.926722
2007-11-01T00:056115477-16.7-49.026723
2007-11-01T00:056122476-16.7-49.126723
2007-11-01T00:056128476-16.7-49.126723
2007-11-01T00:056134476-16.7-49.226723
2007-11-01T00:056140475-16.6-49.326723
2007-11-01T00:056146475-16.6-49.426723
2007-11-01T00:056152474-16.5-49.426723
2007-11-01T00:056158474-16.5-49.326723
2007-11-01T00:056164474-16.4-49.726723
2007-11-01T00:056171473-16.4-50.026724
2007-11-01T00:056177473-16.4-50.226724
2007-11-01T00:056184472-16.3-50.426624
2007-11-01T00:056190472-16.3-50.826624
2007-11-01T00:056196472-16.2-51.126624
2007-11-01T00:056202471-16.2-51.326624
2007-11-01T00:056209471-16.1-51.226624
2007-11-01T00:056214471-16.1-51.226624
2007-11-01T00:056220470-16.1-51.326624
2007-11-01T00:066226470-16.2-51.226624
2007-11-01T00:066232469-16.2-51.026624
2007-11-01T00:066238469-16.1-51.026624
2007-11-01T00:066244469-16.1-51.126524
2007-11-01T00:066251468-16.1-51.126525
2007-11-01T00:066257468-16.1-51.126525
2007-11-01T00:066263467-16.1-51.226525
2007-11-01T00:066269467-16.1-51.126525
2007-11-01T00:066275467-16.1-50.926525
2007-11-01T00:066281466-16.1-50.626525
2007-11-01T00:066287466-16.2-50.226525
2007-11-01T00:066293466-16.2-49.626525
2007-11-01T00:066300465-16.3-49.026525
2007-11-01T00:066305465-16.3-48.426525
2007-11-01T00:066312464-16.4-48.026425
2007-11-01T00:066318464-16.4-47.726425
2007-11-01T00:066325464-16.5-47.326425
2007-11-01T00:066331463-16.5-46.426425
2007-11-01T00:066337463-16.6-45.426425
2007-11-01T00:066343463-16.6-44.826425
2007-11-01T00:066349462-16.7-44.326425
2007-11-01T00:066355462-16.8-44.026425
2007-11-01T00:066361461-16.8-43.826425
2007-11-01T00:066368461-16.9-43.626425
2007-11-01T00:066374461-17.0-43.426425
2007-11-01T00:066379460-17.0-43.226425
2007-11-01T00:066385460-17.0-43.026426
2007-11-01T00:066392460-17.1-42.826426
2007-11-01T00:066398459-17.2-42.526526
2007-11-01T00:066405459-17.2-42.326526
2007-11-01T00:076412458-17.3-42.326526
2007-11-01T00:076419458-17.3-42.326526
2007-11-01T00:076426457-17.4-42.326526
2007-11-01T00:076432457-17.4-42.426526
2007-11-01T00:076439457-17.5-42.526526
2007-11-01T00:076445456-17.5-42.626526
2007-11-01T00:076452456-17.6-42.826526
2007-11-01T00:076458455-17.6-43.026526
2007-11-01T00:076464455-17.7-43.126526
2007-11-01T00:076471455-17.8-43.126526
2007-11-01T00:076477454-17.8-43.126626
2007-11-01T00:076483454-17.9-43.126626
2007-11-01T00:076489454-17.9-43.126626
2007-11-01T00:076495453-18.0-43.126626
2007-11-01T00:076501453-18.0-43.026626
2007-11-01T00:076508452-18.1-42.826626
2007-11-01T00:076515452-18.1-42.526626
2007-11-01T00:076521452-18.2-42.026626
2007-11-01T00:076528451-18.2-41.826726
2007-11-01T00:076534451-18.3-41.626726
2007-11-01T00:076541450-18.4-41.426726
2007-11-01T00:076548450-18.4-41.526726
2007-11-01T00:076555450-18.5-41.726727
2007-11-01T00:076562449-18.6-41.726727
2007-11-01T00:076568449-18.6-41.726727
2007-11-01T00:076576448-18.7-41.726727
2007-11-01T00:076584448-18.8-41.926827
2007-11-01T00:076592447-18.8-42.326827
2007-11-01T00:076599447-18.9-42.526827
2007-11-01T00:076605447-18.9-42.526827
2007-11-01T00:086611446-19.0-42.726827
2007-11-01T00:086618446-19.0-42.926827
2007-11-01T00:086625445-19.1-43.026827
2007-11-01T00:086633445-19.1-43.026827
2007-11-01T00:086639445-19.2-43.226827
2007-11-01T00:086646444-19.2-43.426827
2007-11-01T00:086653444-19.3-43.526827
2007-11-01T00:086659443-19.4-43.726927
2007-11-01T00:086666443-19.4-44.126927
2007-11-01T00:086672443-19.4-45.026927
2007-11-01T00:086679442-19.4-45.726927
2007-11-01T00:086685442-19.5-45.926927
2007-11-01T00:086692441-19.5-46.026927
2007-11-01T00:086698441-19.6-46.126927
2007-11-01T00:086704441-19.6-46.326927
2007-11-01T00:086710440-19.6-46.826928
2007-11-01T00:086717440-19.6-47.026928
2007-11-01T00:086723440-19.7-46.826928
2007-11-01T00:086730439-19.8-46.626928
2007-11-01T00:086736439-19.8-46.226928
2007-11-01T00:086742438-19.9-45.826928
2007-11-01T00:086749438-19.9-45.326928
2007-11-01T00:086755438-20.0-45.126928
2007-11-01T00:086761437-20.0-45.026928
2007-11-01T00:086768437-20.1-44.926928
2007-11-01T00:086775437-20.1-44.826928
2007-11-01T00:086781436-20.2-44.926928
2007-11-01T00:086788436-20.3-44.926928
2007-11-01T00:086794435-20.3-45.026928
2007-11-01T00:086801435-20.4-45.026928
2007-11-01T00:096807435-20.5-45.126928
2007-11-01T00:096813434-20.5-45.226928
2007-11-01T00:096819434-20.6-45.226928
2007-11-01T00:096826434-20.6-45.326928
2007-11-01T00:096832433-20.7-45.426928
2007-11-01T00:096839433-20.8-45.626928
2007-11-01T00:096845432-20.8-45.726928
2007-11-01T00:096852432-20.9-45.726928
2007-11-01T00:096859432-21.0-45.726928
2007-11-01T00:096865431-21.0-45.826928
2007-11-01T00:096871431-21.1-45.926928
2007-11-01T00:096878430-21.1-46.026928
2007-11-01T00:096884430-21.2-46.126928
2007-11-01T00:096891430-21.2-46.226928
2007-11-01T00:096898429-21.3-46.326928
2007-11-01T00:096904429-21.3-46.226928
2007-11-01T00:096911429-21.4-46.126829
2007-11-01T00:096918428-21.4-46.126829
2007-11-01T00:096924428-21.5-46.126829
2007-11-01T00:096930427-21.5-46.126829
2007-11-01T00:096937427-21.6-46.126829
2007-11-01T00:096943427-21.7-46.126829
2007-11-01T00:096949426-21.7-46.126829
2007-11-01T00:096955426-21.8-46.126829
2007-11-01T00:096962426-21.8-46.126829
2007-11-01T00:096968425-21.9-46.026829
2007-11-01T00:096975425-22.0-46.026829
2007-11-01T00:096981424-22.0-46.026829
2007-11-01T00:096987424-22.1-46.026829
2007-11-01T00:096993424-22.1-46.026829
2007-11-01T00:106999423-22.2-45.926829
2007-11-01T00:107006423-22.3-45.826829
2007-11-01T00:107012423-22.3-45.726829
2007-11-01T00:107018422-22.4-45.526829
2007-11-01T00:107024422-22.4-45.126829
2007-11-01T00:107030422-22.5-45.426829
2007-11-01T00:107035421-22.6-45.726829
2007-11-01T00:107042421-22.6-45.826829
2007-11-01T00:107049421-22.7-46.026829
2007-11-01T00:107055420-22.8-46.126829
2007-11-01T00:107062420-22.8-46.126829
2007-11-01T00:107068419-22.9-45.826829
2007-11-01T00:107074419-22.9-45.326829
2007-11-01T00:107080419-23.0-45.226829
2007-11-01T00:107086418-23.0-45.226829
2007-11-01T00:107093418-23.1-45.226829
2007-11-01T00:107099418-23.2-45.226829
2007-11-01T00:107106417-23.2-45.326829
2007-11-01T00:107112417-23.3-45.326829
2007-11-01T00:107118417-23.4-45.326829
2007-11-01T00:107124416-23.4-45.326829
2007-11-01T00:107130416-23.5-45.526829
2007-11-01T00:107136416-23.5-45.726829
2007-11-01T00:107141415-23.6-45.926829
2007-11-01T00:107147415-23.6-46.026829
2007-11-01T00:107154415-23.7-46.226929
2007-11-01T00:107160414-23.8-46.326929
2007-11-01T00:107167414-23.8-46.526929
2007-11-01T00:107173414-23.9-46.626929
2007-11-01T00:107179413-23.9-46.726929
2007-11-01T00:117186413-24.0-46.826929
2007-11-01T00:117192412-24.0-46.826929
2007-11-01T00:117198412-24.0-46.826929
2007-11-01T00:117204412-24.1-46.826929
2007-11-01T00:117210411-24.1-46.926929
2007-11-01T00:117217411-24.2-47.026929
2007-11-01T00:117223411-24.2-47.226929
2007-11-01T00:117230410-24.3-47.326929
2007-11-01T00:117236410-24.4-47.626929
2007-11-01T00:117242410-24.4-47.926929
2007-11-01T00:117248409-24.5-48.226929
2007-11-01T00:117253409-24.5-48.626929
2007-11-01T00:117259409-24.6-49.026929
2007-11-01T00:117265408-24.6-49.526929
2007-11-01T00:117271408-24.7-49.726929
2007-11-01T00:117276408-24.7-49.926929
2007-11-01T00:117282407-24.8-50.226929
2007-11-01T00:117289407-24.8-50.426929
2007-11-01T00:117295407-24.9-50.526929
2007-11-01T00:117301406-24.9-50.626929
2007-11-01T00:117307406-25.0-50.626929
2007-11-01T00:117313406-25.0-50.726929
2007-11-01T00:117319405-25.1-50.726929
2007-11-01T00:117325405-25.1-50.726929
2007-11-01T00:117332405-25.2-50.726929
2007-11-01T00:117338404-25.3-50.726929
2007-11-01T00:117344404-25.3-50.726929
2007-11-01T00:117350404-25.4-50.726929
2007-11-01T00:117357403-25.4-50.826929
2007-11-01T00:117363403-25.5-50.826929
2007-11-01T00:127369403-25.5-50.826929
2007-11-01T00:127375402-25.6-50.826929
2007-11-01T00:127381402-25.6-50.926929
2007-11-01T00:127387402-25.7-50.926929
2007-11-01T00:127393401-25.7-50.826929
2007-11-01T00:127399401-25.7-50.826929
2007-11-01T00:127405401-25.8-50.726829
2007-11-01T00:127411400-25.8-50.626829
2007-11-01T00:127416400-25.8-50.526829
2007-11-01T00:127422400-25.8-50.426829
2007-11-01T00:127427399-25.9-50.426829
2007-11-01T00:127433399-25.9-50.326829
2007-11-01T00:127440399-25.9-50.326829
2007-11-01T00:127446398-26.0-50.326829
2007-11-01T00:127451398-26.0-50.226829
2007-11-01T00:127457398-26.0-50.226829
2007-11-01T00:127463397-26.0-50.326829
2007-11-01T00:127469397-26.0-50.226829
2007-11-01T00:127475397-26.0-49.626829
2007-11-01T00:127481396-26.1-50.126829
2007-11-01T00:127487396-26.1-50.826829
2007-11-01T00:127494396-26.2-50.926829
2007-11-01T00:127500395-26.2-51.026829
2007-11-01T00:127505395-26.2-51.126829
2007-11-01T00:127512395-26.3-51.226829
2007-11-01T00:127518394-26.3-51.226829
2007-11-01T00:127524394-26.3-51.326829
2007-11-01T00:127530394-26.3-51.526829
2007-11-01T00:127536393-26.4-51.626829
2007-11-01T00:127543393-26.4-51.726829
2007-11-01T00:137548393-26.4-51.726829
2007-11-01T00:137554392-26.4-51.726829
2007-11-01T00:137561392-26.4-51.726830
2007-11-01T00:137567392-26.4-51.426830
2007-11-01T00:137573391-26.3-51.126830
2007-11-01T00:137579391-26.3-50.926830
2007-11-01T00:137585391-26.3-50.726830
2007-11-01T00:137590390-26.4-50.626830
2007-11-01T00:137596390-26.4-50.626830
2007-11-01T00:137602390-26.4-50.526830
2007-11-01T00:137609389-26.5-50.326830
2007-11-01T00:137615389-26.5-50.126830
2007-11-01T00:137622389-26.5-49.926830
2007-11-01T00:137627388-26.6-49.726830
2007-11-01T00:137633388-26.6-49.626830
2007-11-01T00:137639388-26.6-49.426830
2007-11-01T00:137645387-26.7-49.526830
2007-11-01T00:137651387-26.7-49.526930
2007-11-01T00:137657387-26.8-49.626930
2007-11-01T00:137663386-26.8-49.726931
2007-11-01T00:137668386-26.9-49.626931
2007-11-01T00:137674386-26.9-49.626931
2007-11-01T00:137680386-27.0-49.626931
2007-11-01T00:137686385-27.0-49.726931
2007-11-01T00:137692385-27.0-49.726931
2007-11-01T00:137698385-27.1-49.726931
2007-11-01T00:137704384-27.1-50.126931
2007-11-01T00:137710384-27.2-50.326931
2007-11-01T00:137717384-27.2-50.426931
2007-11-01T00:137723383-27.3-50.426931
2007-11-01T00:147729383-27.4-50.426931
2007-11-01T00:147735383-27.4-50.326931
2007-11-01T00:147741382-27.4-50.326931
2007-11-01T00:147747382-27.5-50.326931
2007-11-01T00:147754382-27.6-50.426931
2007-11-01T00:147760381-27.6-50.526931
2007-11-01T00:147767381-27.7-50.527031
2007-11-01T00:147773381-27.7-50.427031
2007-11-01T00:147779380-27.8-50.327031
2007-11-01T00:147785380-27.8-50.327031
2007-11-01T00:147791380-27.9-50.227031
2007-11-01T00:147798379-27.9-50.227031
2007-11-01T00:147804379-28.0-50.227031
2007-11-01T00:147810379-28.0-50.127031
2007-11-01T00:147816378-28.1-50.127032
2007-11-01T00:147822378-28.1-50.027032
2007-11-01T00:147828378-28.1-50.127032
2007-11-01T00:147835377-28.2-50.127032
2007-11-01T00:147841377-28.2-50.127032
2007-11-01T00:147847377-28.2-50.026932
2007-11-01T00:147853376-28.2-49.926932
2007-11-01T00:147859376-28.3-49.626932
2007-11-01T00:147865376-28.3-49.326932
2007-11-01T00:147871375-28.3-49.126932
2007-11-01T00:147877375-28.4-49.126932
2007-11-01T00:147883375-28.4-49.326932
2007-11-01T00:147890374-28.4-49.626932
2007-11-01T00:147895374-28.4-50.026932
2007-11-01T00:147901374-28.5-50.326932
2007-11-01T00:147907374-28.5-50.526932
2007-11-01T00:157913373-28.6-50.726932
2007-11-01T00:157919373-28.6-50.526932
2007-11-01T00:157925373-28.6-50.326932
2007-11-01T00:157931372-28.7-50.926933
2007-11-01T00:157937372-28.7-51.126933
2007-11-01T00:157943372-28.8-51.026933
2007-11-01T00:157949371-28.8-50.926933
2007-11-01T00:157956371-28.9-50.826933
2007-11-01T00:157962371-28.9-50.826933
2007-11-01T00:157968370-29.0-50.826833
2007-11-01T00:157975370-29.0-50.826833
2007-11-01T00:157982370-29.1-50.826833
2007-11-01T00:157988369-29.2-50.826833
2007-11-01T00:157994369-29.2-50.826833
2007-11-01T00:158001369-29.3-50.826833
2007-11-01T00:158007368-29.4-50.926833
2007-11-01T00:158013368-29.4-51.026833
2007-11-01T00:158019368-29.5-51.026833
2007-11-01T00:158025367-29.5-51.126833
2007-11-01T00:158032367-29.6-51.226833
2007-11-01T00:158038367-29.6-51.326833
2007-11-01T00:158044366-29.7-51.326833
2007-11-01T00:158051366-29.7-51.526833
2007-11-01T00:158057366-29.8-51.726833
2007-11-01T00:158064365-29.9-51.826833
2007-11-01T00:158070365-29.9-51.926833
2007-11-01T00:158077365-30.0-52.026833
2007-11-01T00:158083364-30.0-52.226833
2007-11-01T00:158089364-30.1-52.326733
2007-11-01T00:158096364-30.1-52.626733
2007-11-01T00:168102363-30.2-52.826733
2007-11-01T00:168109363-30.3-53.026733
2007-11-01T00:168115363-30.3-53.126733
2007-11-01T00:168121363-30.4-53.126733
2007-11-01T00:168127362-30.4-53.126733
2007-11-01T00:168133362-30.5-53.126733
2007-11-01T00:168139362-30.5-53.126733
2007-11-01T00:168145361-30.6-53.026733
2007-11-01T00:168151361-30.6-52.726733
2007-11-01T00:168157361-30.7-52.526733
2007-11-01T00:168164360-30.8-52.826733
2007-11-01T00:168170360-30.8-53.026733
2007-11-01T00:168176360-30.9-53.226733
2007-11-01T00:168182359-30.9-53.426733
2007-11-01T00:168189359-31.0-53.526734
2007-11-01T00:168195359-31.1-53.626734
2007-11-01T00:168201358-31.1-53.826734
2007-11-01T00:168207358-31.2-53.826734
2007-11-01T00:168213358-31.2-53.626734
2007-11-01T00:168220358-31.2-53.226734
2007-11-01T00:168227357-31.2-52.726734
2007-11-01T00:168233357-31.3-52.126734
2007-11-01T00:168239357-31.3-51.626734
2007-11-01T00:168245356-31.3-51.026734
2007-11-01T00:168251356-31.4-50.626734
2007-11-01T00:168258356-31.5-50.426734
2007-11-01T00:168265355-31.5-50.426734
2007-11-01T00:168271355-31.5-50.526734
2007-11-01T00:168277355-31.6-50.726734
2007-11-01T00:168283354-31.7-50.826734
2007-11-01T00:178290354-31.7-50.926734
2007-11-01T00:178296354-31.8-51.026734
2007-11-01T00:178302353-31.8-51.126734
2007-11-01T00:178308353-31.9-51.026734
2007-11-01T00:178314353-31.9-51.026735
2007-11-01T00:178320353-32.0-51.026835
2007-11-01T00:178326352-32.0-50.826835
2007-11-01T00:178332352-32.1-50.726835
2007-11-01T00:178338352-32.1-50.526835
2007-11-01T00:178344351-32.1-50.326835
2007-11-01T00:178350351-32.2-50.126835
2007-11-01T00:178357351-32.2-49.926835
2007-11-01T00:178363350-32.3-49.826835
2007-11-01T00:178370350-32.3-49.626835
2007-11-01T00:178376350-32.4-49.426835
2007-11-01T00:178383349-32.4-48.826835
2007-11-01T00:178389349-32.5-48.726836
2007-11-01T00:178395349-32.5-49.026836
2007-11-01T00:178402348-32.6-48.926836
2007-11-01T00:178408348-32.7-48.726836
2007-11-01T00:178416348-32.7-48.426836
2007-11-01T00:178424347-32.8-48.226836
2007-11-01T00:178431347-32.8-48.126936
2007-11-01T00:178438347-32.9-48.126936
2007-11-01T00:178446346-32.9-48.126936
2007-11-01T00:178453346-33.0-48.026937
2007-11-01T00:178460346-33.0-48.026937
2007-11-01T00:178467345-33.1-47.826937
2007-11-01T00:178473345-33.1-47.326937
2007-11-01T00:178478345-33.1-46.726937
2007-11-01T00:188485344-33.2-46.526937
2007-11-01T00:188492344-33.3-46.526937
2007-11-01T00:188499344-33.3-45.826937
2007-11-01T00:188506343-33.3-44.826938
2007-11-01T00:188513343-33.3-43.926938
2007-11-01T00:188519343-33.3-43.126938
2007-11-01T00:188526342-33.4-42.426938
2007-11-01T00:188532342-33.4-41.826938
2007-11-01T00:188539342-33.5-41.326938
2007-11-01T00:188546341-33.5-40.926938
2007-11-01T00:188553341-33.6-40.526939
2007-11-01T00:188561341-33.6-40.226939
2007-11-01T00:188568340-33.7-40.026939
2007-11-01T00:188574340-33.7-39.926939
2007-11-01T00:188581340-33.8-40.026939
2007-11-01T00:188588339-33.8-40.426939
2007-11-01T00:188595339-33.8-40.926939
2007-11-01T00:188601339-33.8-41.426940
2007-11-01T00:188607338-33.8-42.026940
2007-11-01T00:188614338-33.9-42.626940
2007-11-01T00:188621338-33.9-43.326940
2007-11-01T00:188628337-33.9-43.926940
2007-11-01T00:188635337-34.0-44.426940
2007-11-01T00:188641337-34.0-44.826940
2007-11-01T00:188647336-34.0-45.126941
2007-11-01T00:188653336-34.1-44.926941
2007-11-01T00:188660336-34.1-44.726941
2007-11-01T00:188666336-34.2-44.626941
2007-11-01T00:188673335-34.2-44.726941
2007-11-01T00:188680335-34.3-45.026941
2007-11-01T00:198686335-34.3-45.426941
2007-11-01T00:198693334-34.3-45.626942
2007-11-01T00:198700334-34.4-45.826942
2007-11-01T00:198708334-34.5-45.926942
2007-11-01T00:198715333-34.5-46.126942
2007-11-01T00:198723333-34.6-46.226942
2007-11-01T00:198730332-34.6-46.526942
2007-11-01T00:198737332-34.6-46.826942
2007-11-01T00:198744332-34.7-47.226942
2007-11-01T00:198751331-34.7-47.426943
2007-11-01T00:198757331-34.8-47.726943
2007-11-01T00:198764331-34.8-47.926943
2007-11-01T00:198770331-34.8-48.226943
2007-11-01T00:198777330-34.9-48.526943
2007-11-01T00:198785330-34.9-48.826943
2007-11-01T00:198792330-35.0-49.126943
2007-11-01T00:198800329-35.0-49.326943
2007-11-01T00:198807329-35.1-49.526943
2007-11-01T00:198814328-35.2-49.726944
2007-11-01T00:198822328-35.2-49.826944
2007-11-01T00:198829328-35.3-49.826944
2007-11-01T00:198837327-35.4-49.926944
2007-11-01T00:198844327-35.5-50.026944
2007-11-01T00:198852327-35.5-50.026944
2007-11-01T00:198859326-35.6-50.026944
2007-11-01T00:198867326-35.7-50.026944
2007-11-01T00:198876326-35.7-50.026944
2007-11-01T00:198884325-35.8-50.026945
2007-11-01T00:198893325-35.9-50.026945
2007-11-01T00:198901324-36.0-50.026945
2007-11-01T00:208909324-36.0-50.126945
2007-11-01T00:208917324-36.1-50.026845
2007-11-01T00:208926323-36.2-50.026845
2007-11-01T00:208934323-36.3-49.926845
2007-11-01T00:208942323-36.3-49.826845
2007-11-01T00:208950322-36.4-49.626845
2007-11-01T00:208957322-36.4-49.426845
2007-11-01T00:208964321-36.5-49.326846
2007-11-01T00:208972321-36.6-49.326846
2007-11-01T00:208979321-36.7-49.326846
2007-11-01T00:208986320-36.7-49.226846
2007-11-01T00:208993320-36.7-49.026846
2007-11-01T00:209000320-36.7-49.026846
2007-11-01T00:209007320-36.8-49.026846
2007-11-01T00:209014319-36.9-49.026846
2007-11-01T00:209020319-36.9-48.926846
2007-11-01T00:209026319-37.0-48.926846
2007-11-01T00:209033318-37.0-48.926846
2007-11-01T00:209040318-37.1-48.926846
2007-11-01T00:209046318-37.1-49.026847
2007-11-01T00:209052317-37.1-49.126847
2007-11-01T00:209059317-37.2-49.126747
2007-11-01T00:209066317-37.2-49.226747
2007-11-01T00:209072316-37.3-49.226747
2007-11-01T00:209079316-37.3-49.226747
2007-11-01T00:209086316-37.4-49.226747
2007-11-01T00:209093316-37.5-49.326747
2007-11-01T00:209099315-37.5-49.226747
2007-11-01T00:209106315-37.6-49.026747
2007-11-01T00:209112315-37.6-48.826747
2007-11-01T00:219119314-37.7-48.426747
2007-11-01T00:219125314-37.8-47.926747
2007-11-01T00:219132314-37.8-47.526747
2007-11-01T00:219139313-37.9-47.226647
2007-11-01T00:219145313-37.9-47.026647
2007-11-01T00:219152313-38.0-46.926647
2007-11-01T00:219159313-38.1-46.926648
2007-11-01T00:219165312-38.1-46.926648
2007-11-01T00:219172312-38.2-46.826648
2007-11-01T00:219179312-38.3-46.626648
2007-11-01T00:219185311-38.3-46.426648
2007-11-01T00:219192311-38.4-46.226648
2007-11-01T00:219199311-38.4-46.026648
2007-11-01T00:219206310-38.5-45.926648
2007-11-01T00:219213310-38.5-45.826548
2007-11-01T00:219220310-38.5-45.726548
2007-11-01T00:219227309-38.6-45.726548
2007-11-01T00:219233309-38.7-45.726548
2007-11-01T00:219241309-38.7-45.726548
2007-11-01T00:219248309-38.8-45.726548
2007-11-01T00:219255308-38.8-45.726548
2007-11-01T00:219263308-38.8-45.826548
2007-11-01T00:219271307-38.9-45.926548
2007-11-01T00:219278307-38.9-46.026549
2007-11-01T00:219285307-39.0-46.226449
2007-11-01T00:219292307-39.0-46.326449
2007-11-01T00:219299306-39.0-46.326449
2007-11-01T00:219305306-39.1-46.326449
2007-11-01T00:219312306-39.1-46.226449
2007-11-01T00:219318305-39.2-46.226449
2007-11-01T00:229325305-39.2-46.126449
2007-11-01T00:229332305-39.3-46.126449
2007-11-01T00:229338304-39.3-46.026449
2007-11-01T00:229345304-39.4-46.026449
2007-11-01T00:229351304-39.4-45.926449
2007-11-01T00:229357304-39.5-46.026449
2007-11-01T00:229364303-39.5-46.026449
2007-11-01T00:229370303-39.6-46.126349
2007-11-01T00:229377303-39.6-46.326349
2007-11-01T00:229384302-39.6-46.526349
2007-11-01T00:229391302-39.7-46.726349
2007-11-01T00:229397302-39.7-46.826349
2007-11-01T00:229403302-39.8-46.926349
2007-11-01T00:229410301-39.8-47.126349
2007-11-01T00:229416301-39.8-47.326349
2007-11-01T00:229423301-39.8-47.526349
2007-11-01T00:229429300-39.8-47.626349
2007-11-01T00:229436300-39.8-48.026349
2007-11-01T00:229443300-39.8-48.426349
2007-11-01T00:229450300-39.9-48.726349
2007-11-01T00:229456299-39.9-49.026349
2007-11-01T00:229464299-40.0-49.226349
2007-11-01T00:229471299-40.1-49.326349
2007-11-01T00:229478298-40.1-49.526349
2007-11-01T00:229485298-40.2-49.626349
2007-11-01T00:229492298-40.3-49.726349
2007-11-01T00:229499297-40.3-49.926349
2007-11-01T00:229506297-40.4-49.926349
2007-11-01T00:229512297-40.4-50.026349
2007-11-01T00:229519297-40.5-50.126349
2007-11-01T00:239525296-40.5-50.226349
2007-11-01T00:239531296-40.5-50.326249
2007-11-01T00:239537296-40.6-50.526249
2007-11-01T00:239544295-40.7-50.626249
2007-11-01T00:239550295-40.7-50.626249
2007-11-01T00:239556295-40.8-50.626249
2007-11-01T00:239562295-40.8-50.526249
2007-11-01T00:239569294-40.9-50.426249
2007-11-01T00:239575294-40.9-50.426249
2007-11-01T00:239582294-41.0-50.326249
2007-11-01T00:239588294-41.0-50.426249
2007-11-01T00:239595293-41.1-50.426249
2007-11-01T00:239601293-41.1-50.526249
2007-11-01T00:239608293-41.2-50.626249
2007-11-01T00:239614292-41.2-50.826249
2007-11-01T00:239621292-41.2-50.926249
2007-11-01T00:239627292-41.3-51.126249
2007-11-01T00:239634292-41.3-51.326249
2007-11-01T00:239641291-41.4-51.526249
2007-11-01T00:239647291-41.5-51.726249
2007-11-01T00:239654291-41.5-52.026249
2007-11-01T00:239661290-41.6-52.526249
2007-11-01T00:239668290-41.6-52.626249
2007-11-01T00:239675290-41.7-52.526249
2007-11-01T00:239682290-41.8-52.526249
2007-11-01T00:239689289-41.8-52.526149
2007-11-01T00:239695289-41.8-52.526149
2007-11-01T00:239703289-41.8-52.526149
2007-11-01T00:239710288-41.8-52.626149
2007-11-01T00:239717288-41.9-52.826149
2007-11-01T00:249725288-42.0-53.026149
2007-11-01T00:249732287-42.0-53.126149
2007-11-01T00:249739287-42.1-53.226149
2007-11-01T00:249746287-42.1-53.226149
2007-11-01T00:249753286-42.2-53.226149
2007-11-01T00:249761286-42.3-53.226149
2007-11-01T00:249769286-42.3-53.226149
2007-11-01T00:249777285-42.4-53.126149
2007-11-01T00:249785285-42.5-52.926149
2007-11-01T00:249792285-42.5-52.726149
2007-11-01T00:249800285-42.6-52.426149
2007-11-01T00:249807284-42.7-52.226149
2007-11-01T00:249815284-42.8-52.026149
2007-11-01T00:249822284-42.8-51.826149
2007-11-01T00:249829283-42.9-51.526149
2007-11-01T00:249837283-43.0-51.226149
2007-11-01T00:249844283-43.0-50.926049
2007-11-01T00:249851282-43.1-50.626050
2007-11-01T00:249858282-43.1-50.326050
2007-11-01T00:249865282-43.2-50.126050
2007-11-01T00:249873281-43.2-49.826050
2007-11-01T00:249881281-43.3-49.626050
2007-11-01T00:249888281-43.3-49.426050
2007-11-01T00:249896280-43.3-49.226050
2007-11-01T00:249903280-43.4-49.026050
2007-11-01T00:249910280-43.4-48.926050
2007-11-01T00:249918280-43.5-48.826050
2007-11-01T00:249925279-43.6-48.826050
2007-11-01T00:249932279-43.6-48.826050
2007-11-01T00:249940279-43.7-48.826050
2007-11-01T00:259947278-43.8-48.826050
2007-11-01T00:259955278-43.8-48.826050
2007-11-01T00:259962278-43.9-48.926050
2007-11-01T00:259970277-44.0-48.925950
2007-11-01T00:259978277-44.0-48.925950
2007-11-01T00:259985277-44.1-48.925950
2007-11-01T00:259992276-44.2-49.025950
2007-11-01T00:2510000276-44.2-49.025950
2007-11-01T00:2510008276-44.3-49.025950
2007-11-01T00:2510017275-44.3-49.025950
2007-11-01T00:2510027275-44.3-49.025950
2007-11-01T00:2510036275-44.4-49.025950
2007-11-01T00:2510043274-44.4-49.025950
2007-11-01T00:2510051274-44.5-49.025950
2007-11-01T00:2510058274-44.6-49.025950
2007-11-01T00:2510065273-44.6-49.125850
2007-11-01T00:2510072273-44.7-49.125850
2007-11-01T00:2510078273-44.7-49.125850
2007-11-01T00:2510084273-44.8-49.125850
2007-11-01T00:2510091272-44.8-49.125850
2007-11-01T00:2510097272-44.9-49.125850
2007-11-01T00:2510104272-45.0-49.025850
2007-11-01T00:2510111272-45.0-49.025850
2007-11-01T00:2510117271-45.0-49.025850
2007-11-01T00:2510124271-45.1-49.125850
2007-11-01T00:2510131271-45.2-49.125850
2007-11-01T00:2510138271-45.2-49.225850
2007-11-01T00:2510144270-45.3-49.225850
2007-11-01T00:2510151270-45.3-49.225850
2007-11-01T00:2510158270-45.4-49.325850
2007-11-01T00:2610166269-45.5-49.325750
2007-11-01T00:2610173269-45.6-49.425750
2007-11-01T00:2610181269-45.6-49.425750
2007-11-01T00:2610188268-45.7-49.425750
2007-11-01T00:2610196268-45.8-49.425750
2007-11-01T00:2610203268-45.9-49.525750
2007-11-01T00:2610210268-45.9-49.525750
2007-11-01T00:2610218267-46.0-49.525750
2007-11-01T00:2610225267-46.1-49.525750
2007-11-01T00:2610233267-46.2-49.525750
2007-11-01T00:2610241266-46.2-49.525750
2007-11-01T00:2610248266-46.3-49.525750
2007-11-01T00:2610256266-46.4-49.525750
2007-11-01T00:2610264265-46.5-49.525750
2007-11-01T00:2610272265-46.5-49.525750
2007-11-01T00:2610280265-46.6-49.625750
2007-11-01T00:2610287265-46.7-49.625750
2007-11-01T00:2610295264-46.8-49.625750
2007-11-01T00:2610303264-46.8-49.625750
2007-11-01T00:2610311264-46.9-49.625750
2007-11-01T00:2610318263-47.0-49.725750
2007-11-01T00:2610326263-47.1-49.725750
2007-11-01T00:2610334263-47.1-49.725750
2007-11-01T00:2610341262-47.2-49.825750
2007-11-01T00:2610349262-47.3-49.825750
2007-11-01T00:2610357262-47.3-49.925750
2007-11-01T00:2610364261-47.4-49.925750
2007-11-01T00:2610372261-47.5-50.025750
2007-11-01T00:2610379261-47.6-50.125750
2007-11-01T00:2610387261-47.6-50.125750
2007-11-01T00:2710395260-47.7-50.225750
2007-11-01T00:2710403260-47.8-50.225750
2007-11-01T00:2710411260-47.8-50.225750
2007-11-01T00:2710418259-47.9-50.325750
2007-11-01T00:2710426259-48.0-50.325750
2007-11-01T00:2710433259-48.0-50.425750
2007-11-01T00:2710441258-48.1-50.525750
2007-11-01T00:2710449258-48.2-50.525750
2007-11-01T00:2710455258-48.2-50.625750
2007-11-01T00:2710462258-48.3-50.725750
2007-11-01T00:2710468257-48.3-50.825750
2007-11-01T00:2710476257-48.4-50.825750
2007-11-01T00:2710484257-48.5-50.825750
2007-11-01T00:2710490256-48.5-51.025750
2007-11-01T00:2710497256-48.6-51.325750
2007-11-01T00:2710504256-48.7-51.525850
2007-11-01T00:2710510256-48.7-51.725850
2007-11-01T00:2710517255-48.8-51.825851
2007-11-01T00:2710524255-48.8-52.025851
2007-11-01T00:2710530255-48.9-52.125851
2007-11-01T00:2710537255-49.0-52.225851
2007-11-01T00:2710545254-49.0-52.325851
2007-11-01T00:2710552254-49.1-52.425851
2007-11-01T00:2710559254-49.2-52.525851
2007-11-01T00:2710566254-49.2-52.625851
2007-11-01T00:2710574253-49.3-52.725851
2007-11-01T00:2710582253-49.4-52.825851
2007-11-01T00:2710589253-49.5-53.025851
2007-11-01T00:2710597252-49.5-53.125851
2007-11-01T00:2710604252-49.6-53.225851
2007-11-01T00:2810611252-49.6-53.425851
2007-11-01T00:2810619252-49.7-53.525851
2007-11-01T00:2810628251-49.7-53.625851
2007-11-01T00:2810636251-49.8-53.825851
2007-11-01T00:2810646250-49.9-53.925851
2007-11-01T00:2810655250-50.0-54.025851
2007-11-01T00:2810663250-50.1-54.125851
2007-11-01T00:2810671250-50.2-54.225852
2007-11-01T00:2810678249-50.2-54.325852
2007-11-01T00:2810684249-50.3-54.325952
2007-11-01T00:2810691249-50.3-54.425952
2007-11-01T00:2810697249-50.4-54.425952
2007-11-01T00:2810704248-50.5-54.425952
2007-11-01T00:2810711248-50.5-54.425952
2007-11-01T00:2810718248-50.5-54.425952
2007-11-01T00:2810724247-50.6-54.525952
2007-11-01T00:2810732247-50.7-54.525952
2007-11-01T00:2810738247-50.8-54.525952
2007-11-01T00:2810745247-50.9-54.625952
2007-11-01T00:2810751246-50.9-54.625952
2007-11-01T00:2810758246-50.9-54.525952
2007-11-01T00:2810765246-51.0-54.325952
2007-11-01T00:2810771246-51.0-54.225952
2007-11-01T00:2810779245-51.1-54.125953
2007-11-01T00:2810785245-51.2-54.025953
2007-11-01T00:2810792245-51.2-53.925953
2007-11-01T00:2810799245-51.3-53.825953
2007-11-01T00:2810806244-51.3-53.825953
2007-11-01T00:2810812244-51.4-53.726053
2007-11-01T00:2810819244-51.4-53.726053
2007-11-01T00:2910825244-51.5-53.626053
2007-11-01T00:2910831243-51.5-53.626053
2007-11-01T00:2910838243-51.5-53.526053
2007-11-01T00:2910845243-51.6-53.626053
2007-11-01T00:2910852243-51.7-53.826053
2007-11-01T00:2910858242-51.8-54.026053
2007-11-01T00:2910865242-51.8-54.126053
2007-11-01T00:2910871242-51.9-54.326053
2007-11-01T00:2910878242-51.9-54.426053
2007-11-01T00:2910884241-52.0-54.626053
2007-11-01T00:2910891241-52.0-54.826053
2007-11-01T00:2910898241-52.1-54.926053
2007-11-01T00:2910905241-52.2-55.126153
2007-11-01T00:2910913240-52.2-55.326153
2007-11-01T00:2910919240-52.2-55.426153
2007-11-01T00:2910926240-52.2-55.526153
2007-11-01T00:2910933240-52.3-55.726153
2007-11-01T00:2910940239-52.3-55.826153
2007-11-01T00:2910947239-52.3-56.026153
2007-11-01T00:2910954239-52.4-56.226153
2007-11-01T00:2910960239-52.5-56.426153
2007-11-01T00:2910967238-52.5-56.626253
2007-11-01T00:2910974238-52.6-56.826253
2007-11-01T00:2910981238-52.6-56.926253
2007-11-01T00:2910988238-52.7-57.126253
2007-11-01T00:2910995237-52.7-57.326253
2007-11-01T00:2911002237-52.7-57.426253
2007-11-01T00:2911008237-52.7-57.626252
2007-11-01T00:2911014237-52.8-57.726352
2007-11-01T00:2911020236-52.6-57.726352
2007-11-01T00:3011026236-52.3-57.526352
2007-11-01T00:3011033236-52.1-57.526352
2007-11-01T00:3011040236-52.1-57.726352
2007-11-01T00:3011047235-52.0-57.826352
2007-11-01T00:3011055235-51.7-57.626452
2007-11-01T00:3011062235-51.3-57.426452
2007-11-01T00:3011069235-51.1-57.326452
2007-11-01T00:3011076234-51.0-57.426451
2007-11-01T00:3011082234-50.9-57.826451
2007-11-01T00:3011088234-50.9-58.326451
2007-11-01T00:3011095234-50.8-58.826551
2007-11-01T00:3011101234-50.8-59.426551
2007-11-01T00:3011107233-50.9-60.026551
2007-11-01T00:3011113233-50.9-60.526551
2007-11-01T00:3011119233-50.9-61.126551
2007-11-01T00:3011125233-51.0-61.726551
2007-11-01T00:3011132232-51.0-62.226550
2007-11-01T00:3011138232-51.0-62.826650
2007-11-01T00:3011145232-51.1-63.326650
2007-11-01T00:3011152232-51.2-63.726650
2007-11-01T00:3011158231-51.2-64.226650
2007-11-01T00:3011164231-51.1-64.526650
2007-11-01T00:3011170231-51.0-64.826650
2007-11-01T00:3011176231-51.0-65.226650
2007-11-01T00:3011183231-51.0-65.626649
2007-11-01T00:3011190230-51.0-65.926649
2007-11-01T00:3011196230-51.0-66.226649
2007-11-01T00:3011203230-51.0-66.426649
2007-11-01T00:3011210230-51.0-66.726649
2007-11-01T00:3011216229-51.1-66.926749
2007-11-01T00:3111223229-51.1-67.126749
2007-11-01T00:3111229229-51.1-67.226749
2007-11-01T00:3111236229-51.1-67.426749
2007-11-01T00:3111243228-51.2-67.626748
2007-11-01T00:3111250228-51.2-67.726748
2007-11-01T00:3111256228-51.1-67.926748
2007-11-01T00:3111262228-51.1-68.026748
2007-11-01T00:3111268228-51.0-68.226748
2007-11-01T00:3111275227-51.0-68.426748
2007-11-01T00:3111281227-50.8-68.526748
2007-11-01T00:3111287227-50.7-68.726748
2007-11-01T00:3111293227-50.6-69.026748
2007-11-01T00:3111299227-50.6-69.326647
2007-11-01T00:3111305226-50.7-69.626647
2007-11-01T00:3111311226-50.7-69.826647
2007-11-01T00:3111317226-50.7-70.126647
2007-11-01T00:3111324226-50.7-70.326647
2007-11-01T00:3111330225-50.7-70.626647
2007-11-01T00:3111336225-50.7-70.826647
2007-11-01T00:3111342225-50.6-71.026647
2007-11-01T00:3111348225-50.6-71.126647
2007-11-01T00:3111354225-50.6-71.326647
2007-11-01T00:3111360224-50.5-71.526646
2007-11-01T00:3111367224-50.5-71.826646
2007-11-01T00:3111373224-50.6-72.026646
2007-11-01T00:3111379224-50.6-72.226646
2007-11-01T00:3111385224-50.6-72.526646
2007-11-01T00:3111391223-50.7-72.726646
2007-11-01T00:3111397223-50.7-72.926646
2007-11-01T00:3111403223-50.8-73.126646
2007-11-01T00:3211409223-50.8-73.326546
2007-11-01T00:3211415223-50.8-73.426546
2007-11-01T00:3211421222-50.8-73.526545
2007-11-01T00:3211427222-50.8-73.726545
2007-11-01T00:3211433222-50.8-73.826545
2007-11-01T00:3211439222-50.8-73.826545
2007-11-01T00:3211446221-50.8-73.926545
2007-11-01T00:3211451221-50.8-74.026545
2007-11-01T00:3211457221-50.8-74.126545
2007-11-01T00:3211464221-50.8-74.226545
2007-11-01T00:3211470221-50.9-74.326545
2007-11-01T00:3211476220-50.9-74.326545
2007-11-01T00:3211482220-51.0-74.426545
2007-11-01T00:3211488220-51.0-74.426544
2007-11-01T00:3211494220-51.0-74.426544
2007-11-01T00:3211500220-51.1-74.426444
2007-11-01T00:3211507219-51.1-74.426444
2007-11-01T00:3211513219-51.2-74.426444
2007-11-01T00:3211519219-51.2-74.426444
2007-11-01T00:3211525219-51.2-74.326444
2007-11-01T00:3211531219-51.3-74.326444
2007-11-01T00:3211537218-51.3-74.326444
2007-11-01T00:3211542218-51.4-74.326444
2007-11-01T00:3211548218-51.5-74.326444
2007-11-01T00:3211554218-51.5-74.326444
2007-11-01T00:3211561218-51.6-74.326444
2007-11-01T00:3211567217-51.6-74.326444
2007-11-01T00:3211573217-51.7-74.326444
2007-11-01T00:3211579217-51.7-74.326444
2007-11-01T00:3211585217-51.8-74.326443
2007-11-01T00:3311591217-51.7-74.226443
2007-11-01T00:3311597216-51.8-74.226443
2007-11-01T00:3311603216-51.8-74.226443
2007-11-01T00:3311609216-51.8-74.226443
2007-11-01T00:3311616216-51.9-74.226443
2007-11-01T00:3311622216-51.9-74.226443
2007-11-01T00:3311628215-52.0-74.126443
2007-11-01T00:3311634215-52.0-74.126443
2007-11-01T00:3311640215-52.1-74.126443
2007-11-01T00:3311646215-52.2-74.126443
2007-11-01T00:3311652215-52.2-74.126443
2007-11-01T00:3311658214-52.2-74.126443
2007-11-01T00:3311664214-52.3-74.126443
2007-11-01T00:3311670214-52.3-74.126443
2007-11-01T00:3311676214-52.4-74.126443
2007-11-01T00:3311682214-52.4-74.126443
2007-11-01T00:3311687213-52.4-74.126443
2007-11-01T00:3311693213-52.5-74.226443
2007-11-01T00:3311699213-52.5-74.226443
2007-11-01T00:3311705213-52.6-74.226443
2007-11-01T00:3311710213-52.6-74.226443
2007-11-01T00:3311717212-52.7-74.226443
2007-11-01T00:3311723212-52.7-74.226443
2007-11-01T00:3311731212-52.7-74.226443
2007-11-01T00:3311739212-52.7-74.226443
2007-11-01T00:3311749211-52.7-74.226443
2007-11-01T00:3311759211-52.7-74.326443
2007-11-01T00:3311769211-52.7-74.326544
2007-11-01T00:3311777210-52.8-74.426544
2007-11-01T00:3311784210-52.8-74.526544
2007-11-01T00:3411790210-52.9-74.526544
2007-11-01T00:3411797210-52.9-74.626544
2007-11-01T00:3411804210-52.9-74.626544
2007-11-01T00:3411813209-53.0-74.726544
2007-11-01T00:3411820209-53.1-74.726544
2007-11-01T00:3411826209-53.1-74.726544
2007-11-01T00:3411831209-53.1-74.826544
2007-11-01T00:3411837208-53.1-74.826544
2007-11-01T00:3411842208-53.1-74.826544
2007-11-01T00:3411847208-53.0-74.826544
2007-11-01T00:3411853208-53.0-74.826544
2007-11-01T00:3411859208-53.0-74.826544
2007-11-01T00:3411865208-53.0-74.826544
2007-11-01T00:3411871207-52.9-74.726644
2007-11-01T00:3411877207-52.9-74.526644
2007-11-01T00:3411884207-52.9-74.326644
2007-11-01T00:3411890207-53.0-74.226644
2007-11-01T00:3411896207-53.0-74.026644
2007-11-01T00:3411903206-53.1-73.926644
2007-11-01T00:3411909206-53.1-73.826644
2007-11-01T00:3411916206-53.2-73.826644
2007-11-01T00:3411923206-53.2-73.726644
2007-11-01T00:3411929206-53.3-73.726644
2007-11-01T00:3411936205-53.3-73.626644
2007-11-01T00:3411942205-53.4-73.626644
2007-11-01T00:3411948205-53.4-73.626644
2007-11-01T00:3411955205-53.5-73.626644
2007-11-01T00:3411962204-53.5-73.626644
2007-11-01T00:3411968204-53.6-73.626644
2007-11-01T00:3411975204-53.7-73.526644
2007-11-01T00:3511982204-53.7-73.526544
2007-11-01T00:3511988204-53.8-73.526544
2007-11-01T00:3511995203-53.8-73.526544
2007-11-01T00:3512002203-53.9-73.526544
2007-11-01T00:3512009203-53.9-73.526544
2007-11-01T00:3512016203-54.0-73.526544
2007-11-01T00:3512022203-54.1-73.526544
2007-11-01T00:3512029202-54.1-73.626544
2007-11-01T00:3512036202-54.2-73.626544
2007-11-01T00:3512042202-54.2-73.626544
2007-11-01T00:3512049202-54.3-73.626544
2007-11-01T00:3512055202-54.3-73.626544
2007-11-01T00:3512062201-54.4-73.626544
2007-11-01T00:3512069201-54.4-73.726544
2007-11-01T00:3512076201-54.5-73.726544
2007-11-01T00:3512082201-54.5-73.726544
2007-11-01T00:3512089200-54.6-73.726544
2007-11-01T00:3512095200-54.6-73.726544
2007-11-01T00:3512102200-54.7-73.726544
2007-11-01T00:3512108200-54.7-73.826544
2007-11-01T00:3512115200-54.8-73.826444
2007-11-01T00:3512122199-54.8-73.826444
2007-11-01T00:3512128199-54.9-73.826444
2007-11-01T00:3512135199-54.9-73.826444
2007-11-01T00:3512142199-54.9-73.826444
2007-11-01T00:3512149199-55.0-73.826444
2007-11-01T00:3512156198-55.0-73.926444
2007-11-01T00:3512162198-55.1-73.926444
2007-11-01T00:3512169198-55.1-73.926444
2007-11-01T00:3512175198-55.1-73.926444
2007-11-01T00:3612181198-55.2-73.926544
2007-11-01T00:3612188197-55.2-73.926544
2007-11-01T00:3612194197-55.2-73.926544
2007-11-01T00:3612201197-55.2-73.926544
2007-11-01T00:3612208197-55.3-73.926544
2007-11-01T00:3612214197-55.2-73.926544
2007-11-01T00:3612221196-55.2-73.926544
2007-11-01T00:3612228196-55.2-73.926544
2007-11-01T00:3612235196-55.2-74.026544
2007-11-01T00:3612241196-55.1-74.026544
2007-11-01T00:3612248196-55.0-73.926544
2007-11-01T00:3612256195-54.9-73.926544
2007-11-01T00:3612263195-54.8-74.026544
2007-11-01T00:3612270195-54.7-74.026544
2007-11-01T00:3612277195-54.6-74.026644
2007-11-01T00:3612284194-54.6-74.126644
2007-11-01T00:3612292194-54.6-74.326644
2007-11-01T00:3612299194-54.7-74.426644
2007-11-01T00:3612307194-54.7-74.626644
2007-11-01T00:3612314194-54.7-74.726644
2007-11-01T00:3612322193-54.8-74.826644
2007-11-01T00:3612329193-54.8-75.026644
2007-11-01T00:3612337193-54.9-75.226644
2007-11-01T00:3612344193-55.0-75.326644
2007-11-01T00:3612351192-55.0-75.426744
2007-11-01T00:3612357192-55.1-75.526744
2007-11-01T00:3612364192-55.1-75.726744
2007-11-01T00:3612370192-55.2-75.826743
2007-11-01T00:3612377192-55.2-75.926743
2007-11-01T00:3612384191-55.2-76.026743
2007-11-01T00:3712391191-55.2-76.026743
2007-11-01T00:3712398191-55.2-76.226743
2007-11-01T00:3712404191-55.2-76.326743
2007-11-01T00:3712411191-55.2-76.426743
2007-11-01T00:3712417190-55.2-76.526743
2007-11-01T00:3712424190-55.3-76.726743
2007-11-01T00:3712430190-55.3-76.826743
2007-11-01T00:3712437190-55.4-77.026743
2007-11-01T00:3712443190-55.4-77.126743
2007-11-01T00:3712449189-55.4-77.226742
2007-11-01T00:3712456189-55.4-77.326742
2007-11-01T00:3712462189-55.4-77.426742
2007-11-01T00:3712469189-55.4-77.526742
2007-11-01T00:3712476189-55.4-77.626742
2007-11-01T00:3712482188-55.4-77.726742
2007-11-01T00:3712489188-55.4-77.826742
2007-11-01T00:3712495188-55.4-77.926742
2007-11-01T00:3712502188-55.4-78.026742
2007-11-01T00:3712508188-55.4-78.126741
2007-11-01T00:3712515188-55.4-78.226741
2007-11-01T00:3712521187-55.5-78.326741
2007-11-01T00:3712528187-55.5-78.326741
2007-11-01T00:3712534187-55.5-78.426741
2007-11-01T00:3712540187-55.5-78.526741
2007-11-01T00:3712547187-55.5-78.526741
2007-11-01T00:3712553186-55.5-78.626740
2007-11-01T00:3712559186-55.5-78.626740
2007-11-01T00:3712566186-55.5-78.726740
2007-11-01T00:3712573186-55.4-78.726740
2007-11-01T00:3712580186-55.4-78.726740
2007-11-01T00:3812586185-55.3-78.726740
2007-11-01T00:3812593185-55.3-78.726740
2007-11-01T00:3812599185-55.2-78.726739
2007-11-01T00:3812605185-55.1-78.726739
2007-11-01T00:3812611185-55.0-78.826739
2007-11-01T00:3812618185-55.0-78.726739
2007-11-01T00:3812624184-54.9-78.726739
2007-11-01T00:3812630184-55.0-78.826739
2007-11-01T00:3812636184-55.0-78.826739
2007-11-01T00:3812642184-55.0-78.926738
2007-11-01T00:3812649184-55.0-78.926738
2007-11-01T00:3812655183-55.0-79.026738
2007-11-01T00:3812661183-55.0-79.026738
2007-11-01T00:3812668183-55.0-79.126738
2007-11-01T00:3812674183-55.0-79.126738
2007-11-01T00:3812681183-55.1-79.126738
2007-11-01T00:3812687183-55.1-79.126738
2007-11-01T00:3812694182-55.2-79.226737
2007-11-01T00:3812700182-55.2-79.226737
2007-11-01T00:3812706182-55.2-79.226737
2007-11-01T00:3812712182-55.2-79.326737
2007-11-01T00:3812718182-55.3-79.426737
2007-11-01T00:3812724181-55.3-79.426737
2007-11-01T00:3812731181-55.3-79.526737
2007-11-01T00:3812737181-55.4-79.526737
2007-11-01T00:3812744181-55.4-79.626737
2007-11-01T00:3812751181-55.5-79.626736
2007-11-01T00:3812757181-55.5-79.726736
2007-11-01T00:3812763180-55.5-79.726736
2007-11-01T00:3812769180-55.6-79.726836
2007-11-01T00:3912776180-55.6-79.826836
2007-11-01T00:3912783180-55.6-79.826836
2007-11-01T00:3912789180-55.7-79.926836
2007-11-01T00:3912795179-55.8-79.926836
2007-11-01T00:3912802179-55.8-79.926836
2007-11-01T00:3912808179-55.8-80.026836
2007-11-01T00:3912814179-55.9-80.026835
2007-11-01T00:3912820179-55.9-80.126835
2007-11-01T00:3912827179-56.0-80.126835
2007-11-01T00:3912833178-56.0-80.126835
2007-11-01T00:3912838178-56.0-80.126835
2007-11-01T00:3912845178-56.0-80.226835
2007-11-01T00:3912851178-56.1-80.226835
2007-11-01T00:3912858178-56.1-80.226835
2007-11-01T00:3912864178-56.1-80.226835
2007-11-01T00:3912871177-56.1-80.226835
2007-11-01T00:3912877177-56.1-80.226735
2007-11-01T00:3912883177-56.1-80.126734
2007-11-01T00:3912890177-56.1-80.126734
2007-11-01T00:3912896177-56.0-80.226734
2007-11-01T00:3912903176-56.0-80.226734
2007-11-01T00:3912909176-56.0-80.326734
2007-11-01T00:3912915176-56.1-80.326734
2007-11-01T00:3912923176-56.1-80.426734
2007-11-01T00:3912930176-56.2-80.426734
2007-11-01T00:3912937175-56.2-80.426634
2007-11-01T00:3912945175-56.3-80.526634
2007-11-01T00:3912951175-56.3-80.526633
2007-11-01T00:3912958175-56.3-80.526633
2007-11-01T00:3912965175-56.3-80.526633
2007-11-01T00:4012972175-56.3-80.626633
2007-11-01T00:4012979174-56.4-80.626533
2007-11-01T00:4012986174-56.4-80.626533
2007-11-01T00:4012993174-56.4-80.726533
2007-11-01T00:4013000174-56.5-80.726533
2007-11-01T00:4013007174-56.5-80.726533
2007-11-01T00:4013014173-56.6-80.726533
2007-11-01T00:4013020173-56.6-80.826433
2007-11-01T00:4013026173-56.7-80.826433
2007-11-01T00:4013032173-56.7-80.926432
2007-11-01T00:4013039173-56.7-80.926432
2007-11-01T00:4013045173-56.8-80.926432
2007-11-01T00:4013051172-56.8-80.926432
2007-11-01T00:4013057172-56.8-80.926332
2007-11-01T00:4013063172-56.7-80.926332
2007-11-01T00:4013070172-56.8-80.926332
2007-11-01T00:4013077172-56.8-80.926332
2007-11-01T00:4013083172-56.8-80.926332
2007-11-01T00:4013089171-56.8-80.926332
2007-11-01T00:4013095171-56.8-81.026232
2007-11-01T00:4013102171-56.9-81.026232
2007-11-01T00:4013109171-56.9-81.026232
2007-11-01T00:4013116171-56.9-81.026232
2007-11-01T00:4013123170-56.9-81.026232
2007-11-01T00:4013129170-56.9-81.126232
2007-11-01T00:4013136170-57.0-81.126132
2007-11-01T00:4013143170-57.1-81.226132
2007-11-01T00:4013150170-57.1-81.226132
2007-11-01T00:4013157170-57.2-81.226132
2007-11-01T00:4013164169-57.2-81.326132
2007-11-01T00:4113171169-57.3-81.326132
2007-11-01T00:4113178169-57.4-81.426132
2007-11-01T00:4113184169-57.4-81.426032
2007-11-01T00:4113191169-57.5-81.426032
2007-11-01T00:4113198168-57.5-81.526032
2007-11-01T00:4113205168-57.5-81.526032
2007-11-01T00:4113211168-57.6-81.526032
2007-11-01T00:4113218168-57.5-81.526032
2007-11-01T00:4113224168-57.5-81.526032
2007-11-01T00:4113230168-57.5-81.526032
2007-11-01T00:4113237167-57.5-81.425932
2007-11-01T00:4113244167-57.5-81.425932
2007-11-01T00:4113250167-57.5-81.525932
2007-11-01T00:4113256167-57.5-81.525932
2007-11-01T00:4113263167-57.5-81.525932
2007-11-01T00:4113269167-57.6-81.525932
2007-11-01T00:4113276166-57.6-81.525932
2007-11-01T00:4113282166-57.7-81.625932
2007-11-01T00:4113289166-57.7-81.625932
2007-11-01T00:4113296166-57.7-81.625932
2007-11-01T00:4113302166-57.8-81.725932
2007-11-01T00:4113309165-57.8-81.725832
2007-11-01T00:4113316165-57.9-81.825832
2007-11-01T00:4113322165-58.0-81.825832
2007-11-01T00:4113329165-58.0-81.825832
2007-11-01T00:4113335165-58.1-81.925832
2007-11-01T00:4113342165-58.1-81.925832
2007-11-01T00:4113349164-58.2-82.025832
2007-11-01T00:4113355164-58.2-82.025832
2007-11-01T00:4113362164-58.3-82.125832
2007-11-01T00:4213368164-58.3-82.125832
2007-11-01T00:4213374164-58.3-82.125833
2007-11-01T00:4213381164-58.3-82.125833
2007-11-01T00:4213387163-58.4-82.125833
2007-11-01T00:4213394163-58.4-82.225833
2007-11-01T00:4213400163-58.5-82.225833
2007-11-01T00:4213407163-58.5-82.225833
2007-11-01T00:4213413163-58.5-82.225833
2007-11-01T00:4213420163-58.5-82.225833
2007-11-01T00:4213426162-58.5-82.325833
2007-11-01T00:4213433162-58.5-82.325833
2007-11-01T00:4213439162-58.6-82.425833
2007-11-01T00:4213446162-58.6-82.425833
2007-11-01T00:4213452162-58.7-82.425833
2007-11-01T00:4213458162-58.7-82.425833
2007-11-01T00:4213465161-58.7-82.425833
2007-11-01T00:4213472161-58.7-82.425833
2007-11-01T00:4213478161-58.7-82.425833
2007-11-01T00:4213484161-58.6-82.425833
2007-11-01T00:4213490161-58.7-82.525833
2007-11-01T00:4213497161-58.7-82.525833
2007-11-01T00:4213504160-58.7-82.625833
2007-11-01T00:4213511160-58.8-82.625833
2007-11-01T00:4213517160-58.8-82.625833
2007-11-01T00:4213524160-58.8-82.725833
2007-11-01T00:4213530160-58.8-82.725934
2007-11-01T00:4213537160-58.9-82.725934
2007-11-01T00:4213543159-58.9-82.725934
2007-11-01T00:4213550159-58.9-82.725934
2007-11-01T00:4213557159-59.0-82.825934
2007-11-01T00:4313563159-59.0-82.825934
2007-11-01T00:4313570159-59.1-82.925934
2007-11-01T00:4313576159-59.1-82.925934
2007-11-01T00:4313582158-59.2-82.925934
2007-11-01T00:4313588158-59.2-83.025934
2007-11-01T00:4313595158-59.3-83.026034
2007-11-01T00:4313601158-59.3-83.126034
2007-11-01T00:4313608158-59.4-83.126034
2007-11-01T00:4313615158-59.5-83.126034
2007-11-01T00:4313622157-59.5-83.226034
2007-11-01T00:4313628157-59.5-83.226034
2007-11-01T00:4313635157-59.6-83.226034
2007-11-01T00:4313641157-59.6-83.226134
2007-11-01T00:4313647157-59.6-83.226134
2007-11-01T00:4313654157-59.7-83.326134
2007-11-01T00:4313661156-59.7-83.326134
2007-11-01T00:4313667156-59.7-83.226135
2007-11-01T00:4313674156-59.7-83.226235
2007-11-01T00:4313680156-59.5-83.226235
2007-11-01T00:4313686156-59.5-83.126235
2007-11-01T00:4313693156-59.5-83.126235
2007-11-01T00:4313700155-59.5-83.126235
2007-11-01T00:4313707155-59.5-83.126335
2007-11-01T00:4313714155-59.5-83.226335
2007-11-01T00:4313721155-59.5-83.226335
2007-11-01T00:4313728155-59.6-83.126335
2007-11-01T00:4313735155-59.6-83.126335
2007-11-01T00:4313741154-59.7-83.126435
2007-11-01T00:4313747154-59.7-83.226435
2007-11-01T00:4313754154-59.7-83.226435
2007-11-01T00:4413761154-59.5-83.126435
2007-11-01T00:4413767154-59.5-83.126535
2007-11-01T00:4413773154-59.4-83.126535
2007-11-01T00:4413780153-59.4-83.126535
2007-11-01T00:4413787153-59.5-83.126535
2007-11-01T00:4413795153-59.5-83.226535
2007-11-01T00:4413801153-59.6-83.226636
2007-11-01T00:4413808153-59.6-83.226636
2007-11-01T00:4413815153-59.7-83.326636
2007-11-01T00:4413821152-59.7-83.326636
2007-11-01T00:4413828152-59.8-83.326636
2007-11-01T00:4413835152-59.8-83.326736
2007-11-01T00:4413842152-59.8-83.426736
2007-11-01T00:4413849152-59.9-83.426736
2007-11-01T00:4413856152-59.9-83.426736
2007-11-01T00:4413863151-59.9-83.526736
2007-11-01T00:4413869151-60.0-83.526736
2007-11-01T00:4413876151-60.0-83.526836
2007-11-01T00:4413883151-60.0-83.526836
2007-11-01T00:4413890151-60.0-83.626836
2007-11-01T00:4413897151-60.1-83.626836
2007-11-01T00:4413904150-60.1-83.626836
2007-11-01T00:4413911150-60.1-83.726836
2007-11-01T00:4413918150-60.2-83.726836
2007-11-01T00:4413924150-60.2-83.726836
2007-11-01T00:4413931150-60.2-83.826936
2007-11-01T00:4413938150-60.3-83.826936
2007-11-01T00:4413945149-60.3-83.826936
2007-11-01T00:4413952149-60.4-83.926936
2007-11-01T00:4413959149-60.4-83.926936
2007-11-01T00:4513966149-60.5-84.026935
2007-11-01T00:4513972149-60.5-84.026935
2007-11-01T00:4513979149-60.6-84.026935
2007-11-01T00:4513986149-60.6-84.026935
2007-11-01T00:4513993148-60.6-84.127035
2007-11-01T00:4514000148-60.7-84.127035
2007-11-01T00:4514007148-60.7-84.127035
2007-11-01T00:4514014148-60.7-84.127035
2007-11-01T00:4514021148-60.7-84.227035
2007-11-01T00:4514028148-60.8-84.227035
2007-11-01T00:4514035147-60.8-84.227034
2007-11-01T00:4514042147-60.9-84.227034
2007-11-01T00:4514050147-60.9-84.227034
2007-11-01T00:4514057147-61.0-84.327034
2007-11-01T00:4514064147-61.0-84.327034
2007-11-01T00:4514071146-61.0-84.327134
2007-11-01T00:4514078146-61.0-84.327134
2007-11-01T00:4514085146-61.0-84.327133
2007-11-01T00:4514091146-60.9-84.227133
2007-11-01T00:4514098146-60.9-84.227133
2007-11-01T00:4514106146-60.9-84.327133
2007-11-01T00:4514113146-60.9-84.327133
2007-11-01T00:4514119145-60.9-84.327133
2007-11-01T00:4514126145-60.9-84.327133
2007-11-01T00:4514133145-60.9-84.327132
2007-11-01T00:4514140145-60.9-84.327132
2007-11-01T00:4514147145-61.0-84.327132
2007-11-01T00:4514154145-61.0-84.327132
2007-11-01T00:4514161144-61.0-84.327232
2007-11-01T00:4514168144-61.0-84.427232
2007-11-01T00:4614175144-61.1-84.427231
2007-11-01T00:4614182144-61.1-84.427231
2007-11-01T00:4614189144-61.1-84.327231
2007-11-01T00:4614195144-61.1-84.327231
2007-11-01T00:4614202143-61.0-84.227231
2007-11-01T00:4614208143-61.0-84.227231
2007-11-01T00:4614215143-61.0-84.227230
2007-11-01T00:4614222143-61.0-84.227230
2007-11-01T00:4614229143-61.0-84.227230
2007-11-01T00:4614236143-61.0-84.327230
2007-11-01T00:4614242143-61.0-84.327230
2007-11-01T00:4614249142-61.0-84.327230
2007-11-01T00:4614255142-61.0-84.327330
2007-11-01T00:4614262142-60.9-84.327329
2007-11-01T00:4614269142-61.0-84.327329
2007-11-01T00:4614277142-61.0-84.327329
2007-11-01T00:4614284142-61.0-84.327329
2007-11-01T00:4614291141-61.0-84.327329
2007-11-01T00:4614298141-61.0-84.327329
2007-11-01T00:4614305141-61.0-84.427329
2007-11-01T00:4614312141-61.1-84.427329
2007-11-01T00:4614319141-61.1-84.427328
2007-11-01T00:4614326141-61.1-84.427328
2007-11-01T00:4614333140-61.2-84.427428
2007-11-01T00:4614339140-61.2-84.427428
2007-11-01T00:4614346140-61.0-84.327428
2007-11-01T00:4614353140-61.0-84.327428
2007-11-01T00:4614360140-61.0-84.327428
2007-11-01T00:4614366140-61.0-84.427428
2007-11-01T00:4614374140-61.1-84.427428
2007-11-01T00:4714382139-61.2-84.527427
2007-11-01T00:4714389139-61.2-84.527427
2007-11-01T00:4714396139-61.3-84.627427
2007-11-01T00:4714403139-61.3-84.627427
2007-11-01T00:4714410139-61.4-84.727527
2007-11-01T00:4714417139-61.5-84.727527
2007-11-01T00:4714424138-61.5-84.827527
2007-11-01T00:4714431138-61.6-84.827527
2007-11-01T00:4714438138-61.7-84.827527
2007-11-01T00:4714446138-61.7-84.827527
2007-11-01T00:4714453138-61.7-84.827527
2007-11-01T00:4714460138-61.7-84.827527
2007-11-01T00:4714467137-61.7-84.827527
2007-11-01T00:4714474137-61.7-84.927527
2007-11-01T00:4714480137-61.7-84.927527
2007-11-01T00:4714488137-61.7-84.927527
2007-11-01T00:4714496137-61.7-84.927526
2007-11-01T00:4714503137-61.7-84.927526
2007-11-01T00:4714511136-61.8-84.927526
2007-11-01T00:4714518136-61.8-85.027426
2007-11-01T00:4714525136-61.9-85.027426
2007-11-01T00:4714533136-61.9-85.027426
2007-11-01T00:4714540136-62.0-85.127426
2007-11-01T00:4714548136-62.1-85.127426
2007-11-01T00:4714555135-62.1-85.227426
2007-11-01T00:4714563135-62.2-85.227426
2007-11-01T00:4714570135-62.3-85.327426
2007-11-01T00:4714578135-62.3-85.327426
2007-11-01T00:4714585135-62.4-85.327426
2007-11-01T00:4714593135-62.4-85.427326
2007-11-01T00:4814599135-62.5-85.427326
2007-11-01T00:4814606134-62.5-85.427326
2007-11-01T00:4814614134-62.6-85.527326
2007-11-01T00:4814622134-62.7-85.527326
2007-11-01T00:4814630134-62.8-85.627327
2007-11-01T00:4814638134-62.8-85.627327
2007-11-01T00:4814645134-62.9-85.627327
2007-11-01T00:4814653133-63.0-85.727227
2007-11-01T00:4814660133-63.0-85.727227
2007-11-01T00:4814667133-63.1-85.727227
2007-11-01T00:4814675133-63.2-85.827227
2007-11-01T00:4814683133-63.2-85.827227
2007-11-01T00:4814690133-63.3-85.827227
2007-11-01T00:4814698132-63.3-85.927227
2007-11-01T00:4814704132-63.4-85.927227
2007-11-01T00:4814712132-63.4-85.927227
2007-11-01T00:4814719132-63.4-86.227227
2007-11-01T00:4814726132-63.4-86.827227
2007-11-01T00:4814734132-63.4-86.327227
2007-11-01T00:4814741131-63.4-85.927227
2007-11-01T00:4814749131-63.4-85.827127
2007-11-01T00:4814756131-63.4-85.827127
2007-11-01T00:4814763131-63.4-85.827127
2007-11-01T00:4814770131-63.4-85.827127
2007-11-01T00:4814777131-63.4-85.827127
2007-11-01T00:4814784131-63.4-85.827127
2007-11-01T00:4814791130-63.4-85.727127
2007-11-01T00:4814798130-63.4-85.727127
2007-11-01T00:4814805130-63.4-85.727127
2007-11-01T00:4814812130-63.4-85.727127
2007-11-01T00:4914819130-63.4-85.727127
2007-11-01T00:4914826130-63.4-85.727127
2007-11-01T00:4914833130-63.5-85.727127
2007-11-01T00:4914840129-63.5-85.727127
2007-11-01T00:4914847129-63.5-85.627127
2007-11-01T00:4914854129-63.5-85.627127
2007-11-01T00:4914861129-63.5-85.627127
2007-11-01T00:4914869129-63.5-85.727127
2007-11-01T00:4914876129-63.5-85.727127
2007-11-01T00:4914883128-63.5-85.727027
2007-11-01T00:4914890128-63.6-85.727027
2007-11-01T00:4914897128-63.6-85.727027
2007-11-01T00:4914904128-63.7-85.727027
2007-11-01T00:4914911128-63.7-85.727027
2007-11-01T00:4914917128-63.8-85.827027
2007-11-01T00:4914924128-63.8-85.827026
2007-11-01T00:4914931127-63.9-85.827026
2007-11-01T00:4914937127-64.0-85.827026
2007-11-01T00:4914944127-64.0-85.927026
2007-11-01T00:4914951127-64.1-85.927026
2007-11-01T00:4914958127-64.1-85.927026
2007-11-01T00:4914965127-64.2-86.027026
2007-11-01T00:4914971127-64.2-86.027026
2007-11-01T00:4914979126-64.2-86.026926
2007-11-01T00:4914986126-64.3-86.026926
2007-11-01T00:4914993126-64.3-86.126926
2007-11-01T00:4915000126-64.3-86.126926
2007-11-01T00:4915007126-64.4-86.126926
2007-11-01T00:4915014126-64.4-86.126926
2007-11-01T00:4915021126-64.4-86.126926
2007-11-01T00:5015028125-64.5-86.126926
2007-11-01T00:5015035125-64.6-86.226926
2007-11-01T00:5015042125-64.6-86.226926
2007-11-01T00:5015049125-64.7-86.226926
2007-11-01T00:5015056125-64.7-86.226926
2007-11-01T00:5015062125-64.7-86.226926
2007-11-01T00:5015069125-64.8-86.226926
2007-11-01T00:5015076124-64.8-86.326926
2007-11-01T00:5015083124-64.8-86.326926
2007-11-01T00:5015090124-64.8-86.226926
2007-11-01T00:5015097124-64.8-86.226926
2007-11-01T00:5015104124-64.8-86.226926
2007-11-01T00:5015111124-64.8-86.226926
2007-11-01T00:5015117124-64.8-86.226926
2007-11-01T00:5015123124-64.9-86.226926
2007-11-01T00:5015130123-64.9-86.226926
2007-11-01T00:5015138123-65.0-86.326926
2007-11-01T00:5015145123-65.0-86.326926
2007-11-01T00:5015152123-65.1-86.326926
2007-11-01T00:5015159123-65.1-86.326926
2007-11-01T00:5015166123-65.2-86.326926
2007-11-01T00:5015173123-65.2-86.326926
2007-11-01T00:5015180122-65.3-86.426926
2007-11-01T00:5015187122-65.3-86.426926
2007-11-01T00:5015193122-65.3-86.426926
2007-11-01T00:5015200122-65.4-86.426926
2007-11-01T00:5015207122-65.4-86.426926
2007-11-01T00:5015213122-65.5-86.426926
2007-11-01T00:5015220122-65.6-86.526926
2007-11-01T00:5015227121-65.6-86.526926
2007-11-01T00:5115234121-65.7-86.526926
2007-11-01T00:5115241121-65.7-86.626926
2007-11-01T00:5115248121-65.8-86.626926
2007-11-01T00:5115255121-65.9-86.626926
2007-11-01T00:5115262121-65.9-86.726926
2007-11-01T00:5115269121-66.0-86.726926
2007-11-01T00:5115275120-66.1-86.726926
2007-11-01T00:5115282120-66.1-86.726926
2007-11-01T00:5115289120-66.2-86.726927
2007-11-01T00:5115295120-66.2-86.827027
2007-11-01T00:5115302120-66.3-86.827027
2007-11-01T00:5115310120-66.4-86.827027
2007-11-01T00:5115316120-66.4-86.827027
2007-11-01T00:5115323120-66.4-86.927027
2007-11-01T00:5115330119-66.5-86.927027
2007-11-01T00:5115337119-66.6-86.927027
2007-11-01T00:5115344119-66.6-86.927027
2007-11-01T00:5115350119-66.6-86.927027
2007-11-01T00:5115357119-66.7-86.927127
2007-11-01T00:5115364119-66.7-86.927127
2007-11-01T00:5115371119-66.8-86.927127
2007-11-01T00:5115378118-66.8-86.927127
2007-11-01T00:5115384118-66.8-86.927127
2007-11-01T00:5115392118-66.8-86.927127
2007-11-01T00:5115399118-66.9-86.927227
2007-11-01T00:5115405118-66.9-87.027227
2007-11-01T00:5115412118-66.9-87.027227
2007-11-01T00:5115419118-67.0-86.927227
2007-11-01T00:5115426118-67.0-86.927227
2007-11-01T00:5115433117-67.1-87.027227
2007-11-01T00:5215440117-67.1-87.027327
2007-11-01T00:5215446117-67.1-87.027327
2007-11-01T00:5215453117-67.1-87.027327
2007-11-01T00:5215461117-67.2-86.927327
2007-11-01T00:5215467117-67.2-86.827327
2007-11-01T00:5215474117-67.1-86.827427
2007-11-01T00:5215481116-67.0-86.827427
2007-11-01T00:5215488116-67.0-86.827427
2007-11-01T00:5215495116-66.9-86.727427
2007-11-01T00:5215502116-66.9-86.727427
2007-11-01T00:5215510116-66.9-86.727427
2007-11-01T00:5215517116-66.9-86.727527
2007-11-01T00:5215523116-66.9-86.727527
2007-11-01T00:5215530115-66.9-86.627527
2007-11-01T00:5215537115-66.8-86.527527
2007-11-01T00:5215544115-66.7-86.527527
2007-11-01T00:5215551115-66.6-86.427527
2007-11-01T00:5215558115-66.6-86.327527
2007-11-01T00:5215564115-66.6-86.327627
2007-11-01T00:5215571115-66.6-86.327627
2007-11-01T00:5215578115-66.5-86.327627
2007-11-01T00:5215584114-66.4-86.227627
2007-11-01T00:5215591114-66.3-86.127627
2007-11-01T00:5215598114-66.2-86.027626
2007-11-01T00:5215604114-66.1-85.927626
2007-11-01T00:5215611114-66.1-85.927626
2007-11-01T00:5215618114-66.1-85.927626
2007-11-01T00:5215625114-66.1-85.927626
2007-11-01T00:5215632114-66.1-85.927626
2007-11-01T00:5215639113-66.2-85.927626
2007-11-01T00:5315646113-66.2-85.927626
2007-11-01T00:5315652113-66.2-86.027626
2007-11-01T00:5315659113-66.2-86.027626
2007-11-01T00:5315666113-66.2-86.027626
2007-11-01T00:5315673113-66.2-86.027626
2007-11-01T00:5315679113-66.3-86.027626
2007-11-01T00:5315685113-66.3-86.027626
2007-11-01T00:5315692112-66.2-86.027626
2007-11-01T00:5315699112-66.2-86.027626
2007-11-01T00:5315706112-66.2-86.127626
2007-11-01T00:5315714112-66.3-86.127626
2007-11-01T00:5315721112-66.3-86.127626
2007-11-01T00:5315728112-66.3-86.127526
2007-11-01T00:5315735112-66.3-86.127526
2007-11-01T00:5315743112-66.2-86.027525
2007-11-01T00:5315749111-66.1-86.027525
2007-11-01T00:5315756111-66.1-86.027525
2007-11-01T00:5315763111-66.0-85.927525
2007-11-01T00:5315769111-65.9-85.927525
2007-11-01T00:5315776111-65.9-85.927525
2007-11-01T00:5315783111-65.9-85.927525
2007-11-01T00:5315790111-66.0-86.027525
2007-11-01T00:5315797111-66.0-86.027525
2007-11-01T00:5315804110-66.0-86.027525
2007-11-01T00:5315811110-66.1-86.127525
2007-11-01T00:5315817110-66.1-86.127425
2007-11-01T00:5315824110-66.2-86.227425
2007-11-01T00:5315831110-66.2-86.227425
2007-11-01T00:5315838110-66.3-86.327425
2007-11-01T00:5315845110-66.3-86.327425
2007-11-01T00:5415851110-66.3-86.327425
2007-11-01T00:5415858109-66.4-86.427525
2007-11-01T00:5415865109-66.4-86.427525
2007-11-01T00:5415871109-66.5-86.527524
2007-11-01T00:5415878109-66.6-86.527524
2007-11-01T00:5415884109-66.6-86.627524
2007-11-01T00:5415890109-66.7-86.627524
2007-11-01T00:5415897109-66.7-86.727524
2007-11-01T00:5415904109-66.7-86.727524
2007-11-01T00:5415911108-66.7-86.727524
2007-11-01T00:5415917108-66.7-86.727524
2007-11-01T00:5415924108-66.7-86.727524
2007-11-01T00:5415931108-66.7-86.727624
2007-11-01T00:5415938108-66.6-86.727624
2007-11-01T00:5415944108-66.6-86.727624
2007-11-01T00:5415950108-66.5-86.627624
2007-11-01T00:5415957108-66.5-86.627624
2007-11-01T00:5415964107-66.4-86.627623
2007-11-01T00:5415971107-66.4-86.627723
2007-11-01T00:5415977107-66.5-86.627723
2007-11-01T00:5415984107-66.5-86.627723
2007-11-01T00:5415991107-66.6-86.627723
2007-11-01T00:5415998107-66.6-86.727723
2007-11-01T00:5416005107-66.6-86.727823
2007-11-01T00:5416012107-66.6-86.727823
2007-11-01T00:5416019107-66.6-86.727823
2007-11-01T00:5416025106-66.6-86.727823
2007-11-01T00:5416032106-66.6-86.727823
2007-11-01T00:5416039106-66.6-86.727923
2007-11-01T00:5416045106-66.7-86.827922
2007-11-01T00:5516052106-66.7-86.827922
2007-11-01T00:5516059106-66.8-86.827922
2007-11-01T00:5516066106-66.9-86.927922
2007-11-01T00:5516073106-66.9-86.927922
2007-11-01T00:5516080105-67.0-87.028022
2007-11-01T00:5516087105-67.0-87.028022
2007-11-01T00:5516094105-67.1-87.128022
2007-11-01T00:5516102105-67.2-87.128022
2007-11-01T00:5516109105-67.2-87.228022
2007-11-01T00:5516116105-67.3-87.228022
2007-11-01T00:5516123105-67.3-87.228022
2007-11-01T00:5516130105-67.3-87.328022
2007-11-01T00:5516137104-67.4-87.328022
2007-11-01T00:5516144104-67.4-87.328022
2007-11-01T00:5516151104-67.4-87.328022
2007-11-01T00:5516158104-67.4-87.328021
2007-11-01T00:5516165104-67.5-87.428021
2007-11-01T00:5516173104-67.5-87.428021
2007-11-01T00:5516180104-67.5-87.428021
2007-11-01T00:5516188104-67.6-87.428021
2007-11-01T00:5516195103-67.5-87.428021
2007-11-01T00:5516202103-67.5-87.428021
2007-11-01T00:5516208103-67.5-87.428021
2007-11-01T00:5516216103-67.6-87.428021
2007-11-01T00:5516223103-67.6-87.428021
2007-11-01T00:5516230103-67.6-87.428021
2007-11-01T00:5516238103-67.7-87.427921
2007-11-01T00:5516244103-67.7-87.527921
2007-11-01T00:5516250103-67.7-87.527921
2007-11-01T00:5516258102-67.8-87.527921
2007-11-01T00:5616266102-67.8-87.527921
2007-11-01T00:5616273102-67.8-87.627921
2007-11-01T00:5616280102-67.9-87.627921
2007-11-01T00:5616288102-67.9-87.627921
2007-11-01T00:5616296102-67.9-87.627921
2007-11-01T00:5616302102-67.8-87.527921
2007-11-01T00:5616309102-67.8-87.527921
2007-11-01T00:5616315101-67.7-87.427921
2007-11-01T00:5616323101-67.7-87.427921
2007-11-01T00:5616330101-67.7-87.427921
2007-11-01T00:5616337101-67.7-87.427921
2007-11-01T00:5616343101-67.7-87.427821
2007-11-01T00:5616350101-67.7-87.427821
2007-11-01T00:5616358101-67.7-87.427821
2007-11-01T00:5616364101-67.8-87.527821
2007-11-01T00:5616371100-67.8-87.527821
2007-11-01T00:5616378100-67.8-87.527821
2007-11-01T00:5616385100-67.7-87.427821
2007-11-01T00:5616392100-67.6-87.427821
2007-11-01T00:5616399100-67.6-87.427821
2007-11-01T00:5616406100-67.7-87.427821
2007-11-01T00:5616413100-67.6-87.427821
2007-11-01T00:5616421100-67.6-87.327821
2007-11-01T00:5616428100-67.5-87.327821
2007-11-01T00:561643499-67.4-87.327821
2007-11-01T00:561644199-67.3-87.227821
2007-11-01T00:561644899-67.2-87.127821
2007-11-01T00:561645599-67.1-87.127821
2007-11-01T00:561646299-67.1-87.027821
2007-11-01T00:561646999-67.1-87.027821
2007-11-01T00:571647799-67.0-86.927821
2007-11-01T00:571648499-66.9-86.927821
2007-11-01T00:571649099-66.9-86.827821
2007-11-01T00:571649798-66.8-86.827821
2007-11-01T00:571650398-66.9-86.827821
2007-11-01T00:571651098-66.9-86.927821
2007-11-01T00:571651798-66.9-86.927820
2007-11-01T00:571652398-67.0-86.927820
2007-11-01T00:571653198-67.1-87.027820
2007-11-01T00:571653898-67.1-87.027820
2007-11-01T00:571654598-67.2-87.127820
2007-11-01T00:571655198-67.2-87.127820
2007-11-01T00:571655797-67.3-87.127920
2007-11-01T00:571656497-67.4-87.227920
2007-11-01T00:571657197-67.4-87.227920
2007-11-01T00:571657897-67.5-87.327920
2007-11-01T00:571658597-67.5-87.327920
2007-11-01T00:571659197-67.6-87.327920
2007-11-01T00:571659897-67.6-87.327920
2007-11-01T00:571660697-67.6-87.327920
2007-11-01T00:571661397-67.6-87.427920
2007-11-01T00:571661996-67.6-87.427920
2007-11-01T00:571662696-67.6-87.427920
2007-11-01T00:571663396-67.7-87.427921
2007-11-01T00:571664096-67.7-87.527921
2007-11-01T00:571664696-67.8-87.527921
2007-11-01T00:571665296-67.8-87.528021
2007-11-01T00:571665896-67.8-87.528021
2007-11-01T00:571666596-67.9-87.628021
2007-11-01T00:571667296-67.9-87.628021
2007-11-01T00:581667995-68.0-87.628021
2007-11-01T00:581668695-68.0-87.628021
2007-11-01T00:581669495-68.0-87.628021
2007-11-01T00:581670195-68.0-87.628021
2007-11-01T00:581670795-68.0-87.628121
2007-11-01T00:581671495-68.0-87.628121
2007-11-01T00:581672195-68.1-87.728121
2007-11-01T00:581672695-68.1-87.728121
2007-11-01T00:581673395-68.1-87.728121
2007-11-01T00:581674095-68.2-87.728121
2007-11-01T00:581674794-68.2-87.728221
2007-11-01T00:581675394-68.2-87.728221
2007-11-01T00:581676094-68.2-87.728221
2007-11-01T00:581676894-68.1-87.628221
2007-11-01T00:581677594-67.9-87.528221
2007-11-01T00:581678294-67.8-87.428221
2007-11-01T00:581678894-67.8-87.428321
2007-11-01T00:581679594-67.8-87.428321
2007-11-01T00:581680294-67.8-87.428321
2007-11-01T00:581680993-67.9-87.428320
2007-11-01T00:581681693-67.9-87.528320
2007-11-01T00:581682293-68.0-87.528320
2007-11-01T00:581682993-68.0-87.528320
2007-11-01T00:581683793-68.1-87.628420
2007-11-01T00:581684493-68.2-87.628420
2007-11-01T00:581685093-68.2-87.628420
2007-11-01T00:581685693-68.2-87.728420
2007-11-01T00:581686393-68.2-87.728420
2007-11-01T00:581687092-68.2-87.728420
2007-11-01T00:581687792-68.2-87.728420
2007-11-01T00:591688392-68.2-87.628420
2007-11-01T00:591689192-68.2-87.628420
2007-11-01T00:591689892-68.2-87.628420
2007-11-01T00:591690592-68.2-87.628419
2007-11-01T00:591691192-68.2-87.628419
2007-11-01T00:591691892-68.2-87.628419
2007-11-01T00:591692592-68.3-87.728419
2007-11-01T00:591693292-68.3-87.728419
2007-11-01T00:591693991-68.4-87.728419
2007-11-01T00:591694691-68.4-87.728419
2007-11-01T00:591695391-68.4-87.828419
2007-11-01T00:591696091-68.4-87.728418
2007-11-01T00:591696891-68.4-87.728418
2007-11-01T00:591697591-68.3-87.728418
2007-11-01T00:591698291-68.3-87.628418
2007-11-01T00:591698991-68.2-87.628418
2007-11-01T00:591699691-68.2-87.628318
2007-11-01T00:591700390-68.2-87.628318
2007-11-01T00:591701090-68.2-87.628317
2007-11-01T00:591701890-68.2-87.628317
2007-11-01T00:591702690-68.2-87.628317
2007-11-01T00:591703490-68.1-87.528217
2007-11-01T00:591704290-68.0-87.428217
2007-11-01T00:591705090-67.9-87.328217
2007-11-01T00:591705890-67.7-87.228116
2007-11-01T00:591706690-67.6-87.228116
2007-11-01T00:591707589-67.5-87.128116
2007-11-01T00:591708389-67.3-86.928016
2007-11-01T00:591709189-67.2-86.828016
2007-11-01T00:591709989-67.2-86.827916
2007-11-01T01:001710589-67.2-86.927915
2007-11-01T01:001711189-67.2-86.927815
2007-11-01T01:001711889-67.2-86.827815
2007-11-01T01:001712489-67.1-86.827815
2007-11-01T01:001713189-67.1-86.827715
2007-11-01T01:001713888-67.1-86.827715
2007-11-01T01:001714688-67.1-86.827615
2007-11-01T01:001715388-67.1-86.827515
2007-11-01T01:001716088-67.2-86.827514
2007-11-01T01:001716788-67.2-86.927414
2007-11-01T01:001717588-67.2-86.927414
2007-11-01T01:001718288-67.2-86.927314
2007-11-01T01:001718988-67.2-86.927314
2007-11-01T01:001719688-67.2-86.927214
2007-11-01T01:001720387-67.3-87.027214
2007-11-01T01:001721187-67.3-87.027114
2007-11-01T01:001721887-67.4-87.127114
2007-11-01T01:001722587-67.4-87.127014
2007-11-01T01:001723287-67.5-87.227014
2007-11-01T01:001724087-67.5-87.226914
2007-11-01T01:001724787-67.6-87.326914
2007-11-01T01:001725587-67.6-87.326813
2007-11-01T01:001726287-67.7-87.426813
2007-11-01T01:001727087-67.8-87.426713
2007-11-01T01:001727886-67.8-87.526713
2007-11-01T01:001728586-67.9-87.526713
2007-11-01T01:001729186-67.9-87.626613
2007-11-01T01:001729986-68.0-87.626613
2007-11-01T01:001730686-68.1-87.726513
2007-11-01T01:001731486-68.1-87.726513
2007-11-01T01:011732286-68.2-87.826513
2007-11-01T01:011732986-68.2-87.826413
2007-11-01T01:011733686-68.3-87.926413
2007-11-01T01:011734385-68.3-87.926413
2007-11-01T01:011735185-68.4-88.026413
2007-11-01T01:011735885-68.4-88.026313
2007-11-01T01:011736585-68.5-88.026313
2007-11-01T01:011737385-68.5-88.126313
2007-11-01T01:011738085-68.6-88.126313
2007-11-01T01:011738885-68.6-88.226213
2007-11-01T01:011739585-68.7-88.226213
2007-11-01T01:011740285-68.7-88.226213
2007-11-01T01:011741085-68.8-88.326213
2007-11-01T01:011741784-68.8-88.326213
2007-11-01T01:011742584-68.9-88.426213
2007-11-01T01:011743284-68.9-88.426113
2007-11-01T01:011743984-69.0-88.426113
2007-11-01T01:011744784-69.1-88.526113
2007-11-01T01:011745484-69.1-88.526113
2007-11-01T01:011746284-69.2-88.626113
2007-11-01T01:011746884-69.2-88.626113
2007-11-01T01:011747684-69.2-88.626113
2007-11-01T01:011748483-69.2-88.626113
2007-11-01T01:011749183-69.1-88.526113
2007-11-01T01:011749783-69.1-88.526113
2007-11-01T01:011750583-69.1-88.526013
2007-11-01T01:011751283-69.1-88.526013
2007-11-01T01:011751883-69.1-88.526013
2007-11-01T01:011752683-69.2-88.626013
2007-11-01T01:011753483-69.3-88.626013
2007-11-01T01:021754183-69.3-88.626013
2007-11-01T01:021754883-69.4-88.726013
2007-11-01T01:021755682-69.5-88.726013
2007-11-01T01:021756382-69.5-88.826013
2007-11-01T01:021757082-69.6-88.826013
2007-11-01T01:021757782-69.6-88.826013
2007-11-01T01:021758482-69.7-88.826013
2007-11-01T01:021759182-69.7-88.926013
2007-11-01T01:021759982-69.8-88.926013
2007-11-01T01:021760582-69.8-88.926013
2007-11-01T01:021761282-69.9-89.026013
2007-11-01T01:021761982-70.0-89.026013
2007-11-01T01:021762682-70.0-89.126013
2007-11-01T01:021763481-70.1-89.126013
2007-11-01T01:021764281-70.2-89.226113
2007-11-01T01:021764981-70.2-89.226113
2007-11-01T01:021765781-70.3-89.226113
2007-11-01T01:021766481-70.3-89.326113
2007-11-01T01:021767181-70.4-89.326113
2007-11-01T01:021767881-70.4-89.326113
2007-11-01T01:021768681-70.5-89.326113
2007-11-01T01:021769381-70.5-89.426213
2007-11-01T01:021770181-70.5-89.326213
2007-11-01T01:021770880-70.4-89.326213
2007-11-01T01:021771580-70.4-89.326313
2007-11-01T01:021772280-70.4-89.326313
2007-11-01T01:021772980-70.4-89.326313
2007-11-01T01:021773780-70.4-89.326413
2007-11-01T01:021774480-70.4-89.326413
2007-11-01T01:021775180-70.4-89.226413
2007-11-01T01:031775980-70.3-89.226513
2007-11-01T01:031776780-70.3-89.126513
2007-11-01T01:031777480-70.3-89.126613
2007-11-01T01:031778179-70.3-89.126613
2007-11-01T01:031778779-70.3-89.226713
2007-11-01T01:031779579-70.4-89.226713
2007-11-01T01:031780479-70.4-89.226813
2007-11-01T01:031781279-70.4-89.226813
2007-11-01T01:031781979-70.4-89.226913
2007-11-01T01:031782679-70.4-89.127013
2007-11-01T01:031783379-70.3-89.127013
2007-11-01T01:031784179-70.2-89.027113
2007-11-01T01:031784979-70.2-89.027213
2007-11-01T01:031785678-70.1-88.927213
2007-11-01T01:031786378-70.1-88.927313
2007-11-01T01:031787178-70.0-88.827313
2007-11-01T01:031787878-70.0-88.827413
2007-11-01T01:031788578-70.1-88.827513
2007-11-01T01:031789378-70.1-88.827513
2007-11-01T01:031790078-69.9-88.827613
2007-11-01T01:031790878-69.7-88.627713
2007-11-01T01:031791578-69.6-88.527713
2007-11-01T01:031792378-69.2-88.327813
2007-11-01T01:031793177-68.7-87.927813
2007-11-01T01:031793877-68.3-87.627913
2007-11-01T01:031794577-68.1-87.527913
2007-11-01T01:031795277-68.1-87.528013
2007-11-01T01:031796077-68.1-87.428013
2007-11-01T01:031796777-68.2-87.428113
2007-11-01T01:031797477-68.2-87.428113
2007-11-01T01:041798277-68.2-87.428113
2007-11-01T01:041798977-68.2-87.528213
2007-11-01T01:041799677-68.2-87.528213
2007-11-01T01:041800377-68.2-87.528213
2007-11-01T01:041801076-68.2-87.428313
2007-11-01T01:041801876-68.1-87.428313
2007-11-01T01:041802676-68.1-87.428313
2007-11-01T01:041803376-68.2-87.528313
2007-11-01T01:041804076-68.2-87.528313
2007-11-01T01:041804876-68.2-87.628313
2007-11-01T01:041805576-68.3-87.628313
2007-11-01T01:041806376-68.4-87.728313
2007-11-01T01:041807076-68.4-87.728313
2007-11-01T01:041807876-68.4-87.828312
2007-11-01T01:041808575-68.4-87.828312
2007-11-01T01:041809375-68.4-87.828312
2007-11-01T01:041810175-68.5-87.828312
2007-11-01T01:041810875-68.5-87.928312
2007-11-01T01:041811575-68.5-87.928212
2007-11-01T01:041812275-68.5-87.928212
2007-11-01T01:041813075-68.6-88.028212
2007-11-01T01:041813775-68.6-88.028212
2007-11-01T01:041814575-68.6-88.128112
2007-11-01T01:041815275-68.6-88.128112
2007-11-01T01:041816075-68.6-88.128112
2007-11-01T01:041816674-68.6-88.128112
2007-11-01T01:041817374-68.7-88.228011
2007-11-01T01:041818074-68.7-88.228011
2007-11-01T01:041818774-68.8-88.228011
2007-11-01T01:041819474-68.8-88.327911
2007-11-01T01:051820274-68.8-88.327911
2007-11-01T01:051820974-68.9-88.427911
2007-11-01T01:051821674-68.9-88.427811
2007-11-01T01:051822274-68.8-88.427811
2007-11-01T01:051822874-68.8-88.427711
2007-11-01T01:051823674-68.7-88.327711
2007-11-01T01:051824374-68.7-88.327711
2007-11-01T01:051825073-68.7-88.427611
2007-11-01T01:051825673-68.7-88.327610
2007-11-01T01:051826373-68.6-88.327610
2007-11-01T01:051826973-68.4-88.227510
2007-11-01T01:051827673-68.3-88.227510
2007-11-01T01:051828373-68.2-88.127410
2007-11-01T01:051829073-68.2-88.127410
2007-11-01T01:051829673-68.1-88.027410
2007-11-01T01:051830373-68.0-88.027310
2007-11-01T01:051831073-67.9-87.927310
2007-11-01T01:051831673-67.8-87.927310
2007-11-01T01:051832273-67.7-87.827210
2007-11-01T01:051832972-67.6-87.827210
2007-11-01T01:051833672-67.6-87.827210
2007-11-01T01:051834372-67.6-87.827110
2007-11-01T01:051835072-67.6-87.827110
2007-11-01T01:051835772-67.5-87.827110
2007-11-01T01:051836372-67.3-87.727010
2007-11-01T01:051837172-67.3-87.627010
2007-11-01T01:051837872-67.2-87.627010
2007-11-01T01:051838572-67.2-87.626910
2007-11-01T01:051839272-67.2-87.626910
2007-11-01T01:051839972-67.2-87.626910
2007-11-01T01:061840672-67.2-87.626910
2007-11-01T01:061841271-67.3-87.726910
2007-11-01T01:061841971-67.3-87.826910
2007-11-01T01:061842671-67.4-87.826810
2007-11-01T01:061843471-67.4-87.826810
2007-11-01T01:061844171-67.5-87.926810
2007-11-01T01:061844871-67.5-87.926810
2007-11-01T01:061845571-67.5-88.026810
2007-11-01T01:061846271-67.6-88.026810
2007-11-01T01:061846971-67.6-88.126810
2007-11-01T01:061847671-67.6-88.126810
2007-11-01T01:061848371-67.7-88.226810
2007-11-01T01:061849171-67.7-88.226810
2007-11-01T01:061849970-67.8-88.326910
2007-11-01T01:061850770-67.9-88.426910
2007-11-01T01:061851470-67.9-88.426910
2007-11-01T01:061852070-67.9-88.426910
2007-11-01T01:061852870-67.8-88.426910
2007-11-01T01:061853570-67.8-88.426910
2007-11-01T01:061854270-67.8-88.427010

Only the first 2000 rows were shown. To view the complete dataset, download it as tab-delimited text. You can still view the full matrix in your browser, but be aware that this may crash the browser due to the huge size.